ECMWFFLT2_sfc_temp_060.txt.gz
Temp
72 72 72 72 72 73 74 75 75 75 75 75 74 75 74 74 75 75 75 74 74 72 72 72 73 72 75 73 74 75 75 74 74 74 74 74 74 74 74 73 73 73 73 73 72 72 73 73 73 73 73 74 73 68 67 67 67 67 66 66 68 69
71 71 71 72 73 73 74 75 73 73 73 74 75 75 74 73 75 73 75 73 71 72 70 70 71 74 72 73 73 75 75 74 74 74 73 73 73 73 73 73 73 73 72 72 73 66 69 71 74 73 73 73 69 67 67 67 67 66 66 66 67 71
71 71 71 72 73 73 73 73 72 73 73 74 74 73 72 73 71 72 71 70 70 70 70 70 71 72 72 74 73 75 75 74 74 74 73 73 73 73 73 73 73 73 72 72 66 65 67 67 67 73 74 71 68 67 67 66 66 65 65 67 66 73
70 70 70 70 71 71 72 71 71 72 72 72 72 71 71 71 71 71 70 70 69 69 69 69 74 75 75 72 72 75 75 75 74 74 74 72 73 73 73 73 73 72 69 68 65 65 67 67 67 68 69 70 68 67 67 66 65 66 66 69 68 74
70 70 70 70 71 70 71 70 70 70 71 71 70 70 70 70 70 70 69 69 69 69 69 69 70 70 69 69 69 70 71 69 67 67 70 65 66 69 68 66 66 66 63 65 66 66 67 67 68 68 68 68 68 67 67 66 65 65 66 66 68 73
70 69 69 69 70 70 71 69 69 70 70 70 70 69 70 70 69 69 69 69 69 68 68 68 68 68 68 68 68 67 67 67 66 65 67 65 64 65 64 65 64 65 65 65 65 67 68 68 68 67 67 67 67 67 67 65 66 65 66 65 70 73
69 68 68 69 69 69 69 69 70 70 70 69 69 69 69 69 68 68 69 69 68 68 67 67 67 67 67 67 67 66 66 66 66 64 65 65 64 65 65 64 64 64 64 66 66 68 68 67 68 67 66 67 67 67 66 67 66 65 65 66 70 73
68 68 68 68 68 68 67 68 69 71 70 69 68 68 69 68 68 67 69 69 69 68 67 67 67 67 67 67 67 67 66 65 65 64 65 64 64 63 64 64 64 65 66 67 68 67 66 66 66 66 65 65 66 65 65 66 67 66 66 66 67 72
68 68 67 68 67 66 66 68 69 70 68 70 67 68 68 67 67 67 68 69 69 67 67 67 67 67 67 67 66 66 65 65 65 65 65 65 64 64 64 64 64 64 63 65 66 67 67 66 64 64 64 65 65 65 65 65 66 66 65 66 66 69
68 67 67 67 67 66 66 67 69 68 68 69 66 67 67 66 66 67 67 68 69 68 67 67 67 67 66 66 66 66 65 65 64 65 65 65 64 64 64 63 64 65 66 65 67 67 66 65 65 64 64 64 65 65 64 64 65 65 66 66 66 69
67 68 67 68 66 67 67 67 69 68 68 67 67 67 67 66 66 66 67 68 68 69 68 67 67 67 66 66 67 66 66 65 65 65 65 65 64 65 64 64 64 64 63 66 66 65 65 64 64 64 64 65 64 64 64 64 64 65 65 65 66 66
67 67 67 67 67 67 67 67 68 69 68 67 68 67 66 66 66 66 67 68 68 68 68 67 67 66 67 67 66 67 67 66 66 65 66 66 66 66 65 65 65 65 64 66 65 64 64 64 63 64 64 64 64 63 63 64 64 64 65 65 64 65
67 67 67 67 67 67 67 68 68 68 68 68 67 67 66 66 66 67 67 68 68 68 68 67 66 67 67 66 66 67 67 68 67 67 67 67 68 67 67 66 66 66 65 65 65 64 65 64 63 63 64 64 64 64 64 63 63 64 64 64 63 64
68 67 67 66 66 66 67 67 68 68 68 68 67 67 67 66 67 67 68 68 68 69 67 67 67 66 66 65 66 67 67 66 67 67 69 68 67 66 67 66 66 66 67 65 64 63 63 63 62 63 63 63 63 63 63 63 63 63 63 63 63 63
69 67 68 66 67 67 67 67 67 67 67 67 67 66 66 66 67 67 68 67 68 68 67 67 67 66 65 65 65 66 66 67 68 68 67 67 67 66 67 66 66 65 64 64 64 64 63 62 62 62 62 62 62 63 63 63 63 63 63 62 63 63
68 67 67 67 67 67 67 67 68 69 67 67 67 66 66 67 67 67 68 67 68 68 67 67 66 66 65 65 65 66 67 67 68 68 68 67 67 66 65 65 66 66 64 63 63 62 63 62 62 62 62 62 62 63 62 62 63 63 63 63 63 63
67 67 67 67 67 67 67 67 67 68 67 67 67 66 66 67 67 67 67 67 67 67 66 66 66 66 65 66 65 66 65 67 67 67 66 66 66 66 66 66 64 65 65 63 63 62 62 62 62 63 63 62 62 62 62 62 62 62 63 62 62 63
67 67 66 66 66 66 67 67 67 67 68 67 67 67 67 67 67 67 67 66 66 66 66 66 66 65 65 66 65 65 64 67 67 67 67 66 65 66 66 66 64 64 65 64 62 62 61 62 63 63 63 61 61 62 63 63 63 64 62 62 61 61
67 65 64 65 65 66 66 66 66 67 67 67 67 67 67 67 67 67 66 66 66 66 66 66 66 66 65 65 64 64 65 65 67 66 66 66 65 65 65 65 65 64 64 65 63 63 62 62 63 63 62 61 61 62 63 63 62 62 61 62 63 64
65 64 64 64 65 65 65 65 65 65 65 65 67 67 67 67 67 66 66 66 66 66 66 66 65 65 65 65 64 64 65 66 66 66 66 65 64 65 65 64 64 64 64 65 64 63 63 62 62 63 62 62 62 62 62 62 62 61 61 62 63 63
65 64 64 63 64 64 64 64 65 65 64 65 66 66 67 67 66 66 67 67 67 66 66 66 66 65 65 66 65 64 65 65 65 66 66 65 65 65 66 65 65 65 64 63 62 63 63 63 62 61 62 62 62 63 63 62 62 62 63 63 62 62
65 64 63 62 64 65 65 65 65 64 64 64 65 65 65 66 66 67 67 67 67 67 67 66 66 66 66 65 64 64 65 65 65 65 66 65 65 66 65 65 65 63 64 64 62 63 63 63 60 60 59 59 60 62 63 62 61 62 63 63 62 61
64 64 63 63 64 65 65 65 65 64 64 64 65 65 66 66 67 66 66 66 67 67 67 67 66 66 66 66 65 64 64 64 65 66 65 65 65 65 65 65 65 64 62 63 63 64 63 62 59 61 61 59 57 57 59 61 62 62 62 62 62 62
64 64 63 64 65 64 65 65 65 65 65 65 64 65 66 65 66 66 66 66 66 67 67 67 67 67 66 66 65 64 65 64 65 66 66 65 65 64 64 64 63 64 64 61 62 63 64 62 62 61 55 53 56 57 55 57 58 60 62 62 62 61
64 64 64 64 64 64 64 64 64 65 65 64 65 64 64 64 65 66 66 65 66 67 67 67 67 66 66 65 65 65 65 65 65 65 66 65 65 65 65 65 65 64 64 63 61 61 62 61 63 63 59 56 54 53 54 57 59 58 60 60 61 62
65 65 64 64 64 64 63 63 63 62 61 61 61 62 63 63 63 64 65 66 66 67 67 66 66 66 66 65 65 66 66 66 65 65 65 65 66 65 65 65 65 65 64 64 64 62 61 62 63 62 61 59 59 55 54 58 59 54 59 60 60 62
65 64 64 64 64 64 63 64 63 63 63 62 62 62 64 65 65 65 66 65 66 66 67 66 65 66 66 66 65 66 66 66 66 66 66 65 65 65 66 67 65 65 65 64 64 61 61 61 61 61 62 61 61 58 61 58 55 57 55 59 60 59
65 64 64 64 63 64 64 63 63 63 64 63 63 63 64 64 65 65 65 65 65 66 66 66 65 66 66 67 66 66 66 66 66 66 66 66 66 65 65 65 65 66 64 65 64 62 61 61 61 61 60 59 59 60 61 57 59 58 57 55 57 60
64 64 64 64 63 63 64 64 64 64 63 63 64 64 63 64 64 65 65 64 65 66 66 66 66 66 66 67 67 66 66 66 66 66 67 66 66 65 65 64 64 63 63 63 64 64 63 61 61 60 59 57 59 59 58 58 60 58 57 56 56 58
63 64 64 63 63 63 63 64 63 63 64 63 63 63 63 63 64 64 65 65 66 65 65 65 65 66 67 67 67 67 66 66 67 67 66 67 66 65 65 65 64 64 64 63 63 63 63 62 62 61 61 60 59 58 57 57 57 56 58 60 56 57
63 64 64 63 63 63 63 63 63 63 64 63 63 63 62 63 64 64 64 65 65 65 65 65 64 65 66 67 67 67 66 66 66 67 67 66 65 66 65 65 65 64 64 64 63 63 63 63 62 61 61 61 61 61 59 56 57 57 57 56 56 57
63 63 63 64 63 63 63 63 63 64 63 64 64 64 63 63 64 64 65 65 64 63 63 64 64 64 65 66 66 65 66 66 66 66 66 66 66 66 66 65 64 64 64 63 64 63 62 62 61 62 61 60 61 62 60 60 59 59 58 57 58 57
62 63 63 63 63 63 63 63 63 63 63 64 64 64 64 64 65 65 65 65 63 61 62 62 63 64 65 65 65 65 65 64 65 65 65 65 65 66 65 65 64 64 64 63 63 63 62 62 62 62 61 60 61 61 60 60 60 60 59 58 59 56
63 63 63 62 62 62 62 63 63 64 64 64 64 64 64 65 65 66 66 66 65 65 64 65 64 65 65 66 65 65 66 66 65 65 65 65 65 66 66 65 64 64 64 63 63 63 62 62 62 62 62 60 61 61 60 60 61 60 59 58 56 57
62 62 62 62 62 61 62 62 62 63 63 63 62 62 62 65 65 64 65 66 65 66 66 66 66 65 66 66 65 65 66 65 64 64 64 65 66 66 65 65 65 64 64 63 63 62 62 62 62 61 61 62 61 62 60 60 60 60 61 61 60 59
61 60 60 60 60 60 60 61 61 61 62 63 63 63 62 63 64 65 66 67 66 66 66 64 64 65 65 66 65 65 65 65 63 64 64 65 65 65 65 64 64 64 63 65 63 62 62 62 62 61 62 60 61 61 61 61 61 60 62 62 61 61
60 60 61 61 60 60 61 61 61 60 61 61 63 63 63 63 64 65 66 66 67 66 65 66 66 66 65 65 64 65 65 64 63 64 64 65 65 64 64 64 64 62 63 63 63 63 62 62 62 61 60 61 61 61 60 61 62 61 61 61 61 62

ECMWFFLT2_sfc_temp_063.txt.gz
Temp
72 72 72 72 72 72 74 75 74 75 75 75 75 75 74 75 75 75 75 74 73 72 72 72 72 72 74 72 73 74 74 74 73 74 74 73 73 73 73 73 73 73 73 73 72 73 73 73 73 73 73 72 71 65 65 64 64 65 64 65 66 67
72 72 72 72 72 72 73 74 72 73 73 74 75 75 73 72 74 72 75 73 71 72 70 70 71 74 71 73 73 74 74 74 73 73 73 73 73 73 73 73 73 73 72 71 70 67 70 73 73 72 72 70 66 64 64 64 63 64 64 64 65 70
71 71 71 71 72 72 72 72 71 72 73 74 73 72 71 72 70 71 70 70 70 70 69 70 71 72 72 73 73 74 74 74 73 73 73 73 73 72 72 73 73 72 70 69 65 65 66 68 70 73 71 67 64 64 64 63 63 64 63 65 66 73
71 71 70 70 70 71 71 71 71 71 71 71 71 71 70 70 70 70 70 69 69 69 69 69 73 74 74 71 72 74 74 74 73 73 73 71 73 73 73 73 72 70 67 66 65 65 66 68 68 66 64 64 64 64 64 64 63 63 63 67 66 74
70 70 70 70 70 70 71 71 71 71 71 71 70 69 69 69 69 69 69 69 69 68 68 69 69 70 69 69 68 69 70 68 67 66 69 63 65 66 66 64 65 65 63 65 65 65 66 67 66 65 64 64 64 64 64 65 66 65 64 64 67 73
70 70 70 69 70 71 71 70 70 70 71 71 70 70 69 68 68 68 68 68 68 67 67 68 68 68 68 67 67 66 66 66 65 65 66 62 62 62 62 62 63 64 63 64 65 66 66 67 67 66 65 64 64 64 64 62 64 65 65 66 69 73
69 69 69 69 70 70 70 70 70 70 70 69 70 69 69 69 68 68 68 68 67 66 66 66 67 67 66 67 66 66 65 65 65 64 64 64 63 62 62 62 61 62 62 64 65 66 65 66 67 66 64 64 64 64 63 64 63 63 63 65 70 73
67 67 67 69 69 69 69 70 70 71 70 70 70 69 69 69 68 67 68 68 68 66 66 66 66 66 66 65 66 65 65 64 65 64 64 65 63 62 62 61 61 61 63 65 66 65 65 65 65 65 64 64 63 63 63 63 64 63 64 65 66 72
66 67 67 69 69 69 69 70 70 69 69 71 69 69 69 68 68 68 68 68 68 66 65 66 66 66 65 65 65 65 65 64 63 64 64 63 63 62 62 61 61 61 61 63 65 64 64 64 64 64 64 64 63 63 63 63 63 63 64 64 65 69
66 66 67 68 67 68 69 69 70 69 69 70 69 69 69 68 68 68 67 67 68 67 66 66 65 65 65 65 65 64 64 63 63 62 64 64 63 63 62 61 61 63 65 64 64 65 64 63 63 63 63 64 63 63 62 62 63 63 63 63 64 68
66 68 66 66 66 68 69 69 69 69 70 69 69 69 68 68 67 67 67 67 67 67 66 66 65 65 65 65 64 64 64 63 62 62 63 64 63 63 62 62 63 62 64 65 64 63 63 63 62 63 63 64 63 63 63 63 63 64 64 63 64 65
66 66 66 66 66 66 68 69 69 69 69 68 69 68 68 67 66 66 67 67 67 67 67 65 65 65 65 64 64 64 63 63 63 63 64 63 63 63 62 62 62 63 64 65 63 63 62 62 62 62 62 63 63 63 63 63 63 63 63 63 62 63
66 66 66 66 66 66 66 68 69 69 68 68 68 68 67 67 66 66 67 67 67 67 67 66 65 66 66 64 65 64 64 65 64 64 64 64 63 63 64 63 63 64 63 63 63 62 63 62 62 62 62 63 63 63 63 63 63 63 63 63 62 61
66 65 66 65 65 65 66 67 69 69 68 68 68 67 67 66 66 66 67 67 67 67 66 66 66 65 65 64 65 65 65 65 64 64 64 64 63 63 63 63 63 63 64 63 62 61 62 62 63 63 63 63 63 62 63 63 62 63 63 62 61 62
68 65 66 65 65 65 65 67 68 69 68 67 67 67 66 66 66 66 67 67 67 67 67 66 66 66 65 64 64 65 65 66 66 64 65 64 64 64 64 63 64 63 62 61 61 61 62 62 62 62 62 63 63 63 62 62 62 63 63 61 62 61
67 66 65 65 65 65 66 66 67 69 69 68 66 66 66 66 66 66 67 67 67 67 66 66 66 65 65 64 64 65 65 65 66 65 65 64 65 64 63 64 64 64 62 61 62 60 61 61 62 62 63 63 63 63 62 62 62 62 62 62 62 61
66 66 65 65 65 65 66 66 67 68 69 68 66 66 66 66 66 66 67 68 67 67 66 66 66 65 65 65 64 64 65 66 66 65 65 64 64 65 64 64 63 63 64 61 61 61 60 61 62 62 63 63 62 62 62 62 62 61 62 62 61 62
67 66 65 65 65 65 66 66 66 66 68 67 66 67 66 66 67 67 67 67 68 67 66 66 66 65 64 65 64 64 65 66 66 65 65 65 64 65 65 64 62 62 63 62 61 61 61 62 62 62 62 62 62 63 63 63 63 64 62 62 62 62
67 66 65 65 65 65 65 65 66 66 67 67 67 66 66 65 66 67 67 67 67 67 67 66 66 65 64 65 64 64 65 65 66 65 65 64 64 64 64 64 63 62 63 61 62 62 62 63 63 62 62 62 63 63 63 63 63 62 62 62 63 64
66 66 65 65 65 65 65 65 65 66 66 66 65 65 65 66 66 66 67 67 67 66 66 66 65 65 65 65 64 64 65 65 65 65 64 64 63 63 63 63 63 63 62 63 62 62 63 63 63 62 62 62 63 63 63 63 63 62 62 62 63 62
66 65 64 64 64 64 64 65 65 65 64 65 65 65 65 66 65 66 66 67 66 66 66 66 66 65 65 66 65 64 64 64 65 65 65 64 64 64 64 64 63 63 63 62 62 63 64 64 62 61 62 62 62 63 64 63 63 63 63 63 61 61
65 64 64 64 64 65 65 66 65 64 64 63 63 64 64 65 65 65 66 66 65 65 65 66 66 65 65 65 64 63 64 65 65 65 65 64 64 65 64 63 63 62 63 62 61 63 63 63 60 59 58 59 60 62 63 63 63 63 63 63 61 60
65 64 62 63 64 64 64 65 65 64 64 63 65 64 65 65 66 65 65 65 65 65 65 65 66 65 65 65 64 64 65 65 65 65 63 63 63 63 63 63 63 63 62 61 61 63 62 59 59 61 61 59 57 56 59 61 62 62 62 62 62 62
65 64 62 63 64 63 64 65 65 65 65 64 63 65 65 65 64 64 64 65 65 65 65 65 65 65 65 65 64 64 64 64 64 65 64 63 63 63 63 63 62 62 63 61 62 61 61 60 62 61 55 55 56 57 55 57 58 60 62 62 62 61
65 64 62 63 63 64 64 64 64 64 64 63 63 63 63 63 64 64 64 64 64 65 65 65 65 66 66 65 64 64 64 64 64 64 65 64 63 63 64 64 63 62 62 62 60 60 61 59 61 61 59 56 54 54 55 57 59 58 61 61 61 62
65 65 63 63 63 64 63 63 62 61 60 60 60 61 62 62 63 63 63 64 65 66 65 66 66 66 66 65 64 64 65 65 64 64 64 65 65 64 63 63 64 63 62 63 62 60 59 60 61 61 58 58 60 56 54 58 58 54 60 61 61 62
65 65 64 63 64 64 62 62 62 62 62 61 61 62 63 64 64 64 65 64 65 65 66 65 65 66 65 65 65 65 65 65 65 64 65 64 64 64 64 65 65 63 64 63 62 60 60 59 58 60 60 59 58 56 60 59 55 56 55 58 60 60
65 65 65 64 63 64 63 62 62 62 62 62 62 62 63 64 64 64 64 64 64 65 65 66 65 65 65 65 65 64 65 65 65 65 65 64 64 64 64 65 64 65 64 63 62 61 60 59 59 59 59 57 57 58 59 56 59 57 56 55 56 60
64 64 65 63 63 63 63 63 63 62 61 63 63 62 63 64 64 64 64 64 64 65 65 65 65 65 65 65 65 65 65 65 65 64 65 65 65 64 64 64 63 62 62 62 63 62 61 60 60 59 58 54 57 57 55 56 58 54 55 55 56 57
64 64 65 64 63 63 63 63 62 62 62 62 62 61 63 63 63 63 63 63 64 64 64 63 63 64 65 65 65 65 65 65 65 65 65 65 64 64 64 64 64 63 63 63 62 62 62 61 61 60 60 57 55 55 55 55 56 54 57 57 56 56
64 64 64 64 63 62 62 62 62 62 62 62 61 61 61 62 62 62 63 62 63 62 63 63 62 63 64 64 65 65 65 65 65 65 65 64 64 64 63 64 64 64 63 63 62 61 61 61 61 60 59 59 59 59 58 54 56 56 54 53 55 57
64 63 64 64 62 61 62 62 62 63 62 62 62 61 61 62 62 62 63 62 62 62 62 62 63 63 63 64 64 64 65 65 65 65 65 65 64 64 64 64 63 63 63 63 63 62 61 60 60 60 59 59 59 60 58 57 58 58 57 56 57 56
63 63 63 62 61 61 61 61 62 62 62 62 62 62 61 62 62 63 63 62 62 61 61 61 61 62 62 63 63 62 62 63 64 65 65 64 64 64 63 63 63 63 62 62 62 62 61 61 61 60 60 59 59 60 59 57 59 58 56 57 57 56
61 61 61 60 61 60 61 61 61 61 61 62 61 62 62 62 62 63 63 63 62 62 62 62 61 61 63 63 63 64 64 64 65 64 64 64 64 64 64 64 63 63 62 63 62 62 61 61 61 61 61 59 59 59 58 59 59 58 57 57 56 56
60 60 60 60 60 60 60 61 61 62 61 60 61 61 62 62 62 62 63 63 63 63 63 62 62 63 64 64 64 64 64 64 64 64 64 64 64 64 64 64 63 63 63 62 62 62 61 61 61 60 59 60 60 58 58 58 59 59 59 59 58 57
59 58 59 60 60 61 61 61 62 62 62 61 61 62 61 61 62 62 63 63 64 64 64 63 63 63 64 65 64 64 64 64 63 63 63 63 63 63 63 63 62 62 62 63 62 61 61 61 61 60 60 59 59 59 59 59 59 59 59 59 59 59
58 58 59 59 60 61 61 61 62 62 61 61 61 61 61 61 61 62 63 64 64 64 64 64 64 64 64 64 64 64 63 62 62 63 63 63 64 63 63 63 62 61 61 61 62 61 60 60 60 60 60 59 60 60 59 59 60 59 59 59 59 60

ECMWFFLT2_sfc_temp_069.txt.gz
Temp
78 78 78 78 78 78 77 75 75 75 75 75 75 75 74 74 75 75 76 75 74 77 78 77 77 79 75 77 74 74 74 74 74 74 74 74 74 74 74 74 73 73 73 73 73 73 72 72 72 72 72 72 73 77 77 78 78 78 79 79 79 79
77 78 78 78 78 78 77 77 78 78 78 77 76 76 76 77 77 78 75 76 77 78 78 78 78 77 78 77 76 74 74 74 74 74 73 73 74 74 74 73 74 74 73 73 73 78 75 73 72 72 72 72 77 78 77 77 78 79 79 79 79 76
77 77 77 78 78 78 78 78 78 78 78 77 78 78 78 78 79 79 78 78 76 77 78 78 78 78 78 75 76 74 74 74 74 74 74 73 73 73 73 73 73 74 73 72 78 79 79 79 76 72 73 76 77 77 77 77 78 78 79 79 79 74
76 76 76 77 78 78 77 77 78 78 78 78 77 78 78 78 78 78 77 77 76 77 77 77 76 74 75 78 76 74 73 74 73 74 73 75 73 73 72 72 73 73 74 78 79 79 80 79 78 77 77 77 77 77 77 77 79 79 79 80 80 73
75 76 76 76 76 76 76 77 78 78 78 77 76 76 76 77 77 77 77 76 76 77 77 77 77 77 78 78 78 78 77 78 78 76 74 78 77 75 75 77 76 76 79 79 79 78 78 78 77 77 77 77 77 77 77 77 78 79 80 79 77 73
75 75 75 75 76 75 75 74 76 76 77 77 77 76 76 75 76 76 76 75 75 75 76 76 76 76 77 77 77 78 78 77 76 76 76 77 77 76 77 79 78 77 77 79 78 77 77 77 77 77 78 77 77 77 78 78 78 79 79 79 76 73
73 74 75 76 76 75 75 75 76 76 76 76 77 76 76 75 75 76 75 76 74 74 75 76 74 75 75 77 77 77 77 77 76 76 77 77 76 77 79 79 78 77 77 78 79 78 77 77 78 78 77 78 78 77 77 78 78 78 78 78 76 73
73 74 74 75 75 76 76 75 76 75 77 76 76 76 76 75 74 74 75 75 75 76 76 75 74 74 74 77 77 77 77 77 77 77 77 77 77 77 78 78 77 78 79 79 78 77 77 77 77 77 77 77 77 76 77 78 78 78 78 79 78 74
74 73 73 75 76 76 75 75 76 76 76 76 77 76 76 74 73 73 74 75 75 74 75 75 75 75 76 75 76 76 76 77 77 77 77 76 77 76 76 77 77 78 78 78 78 76 77 76 76 76 77 77 76 75 75 76 77 77 79 78 78 75
75 74 73 76 76 75 75 74 75 76 76 76 77 76 76 73 73 73 72 73 74 75 74 73 73 75 74 74 74 75 76 76 76 77 77 76 76 76 76 77 77 78 79 78 78 76 76 76 77 76 77 76 75 75 75 76 77 78 79 78 77 76
75 74 74 76 75 74 75 75 76 76 77 76 77 76 75 74 72 72 73 73 75 75 74 73 72 73 73 74 74 74 75 77 76 77 77 76 76 76 76 77 77 77 78 78 77 77 77 76 76 76 75 77 75 75 75 76 76 76 77 77 78 77
75 74 74 76 76 75 74 76 76 76 76 77 76 76 76 75 72 73 73 74 74 74 73 72 72 72 73 74 74 74 75 75 76 77 77 76 75 76 76 77 76 77 76 77 76 76 75 75 75 76 76 74 74 75 76 75 75 75 76 76 77 77
74 73 74 75 75 76 76 77 76 76 76 76 76 76 75 74 74 74 73 74 74 74 73 72 71 72 73 73 73 73 74 75 76 76 76 75 75 75 76 75 74 75 75 75 74 74 75 75 74 74 75 74 74 75 75 74 75 75 75 75 76 76
74 73 73 75 75 76 75 76 76 76 76 75 76 75 74 74 75 75 74 73 73 74 73 73 73 72 72 72 73 73 74 75 76 75 75 74 75 76 75 75 74 74 72 74 73 73 73 73 74 74 73 75 75 74 73 74 75 75 74 75 75 75
72 72 72 73 74 75 74 75 75 76 76 75 75 74 75 75 75 75 74 72 73 73 74 74 74 72 72 72 73 73 73 76 76 75 76 75 75 75 76 75 75 73 72 72 72 72 73 71 72 72 71 72 72 72 72 72 73 74 75 75 74 75
71 70 71 72 73 74 75 75 76 75 74 74 75 74 74 75 75 75 73 73 72 73 73 74 74 74 71 73 74 74 74 75 75 75 75 75 75 75 75 74 74 73 70 69 69 69 71 69 71 70 70 70 70 71 71 72 73 74 75 75 75 74
70 69 69 70 72 73 73 73 74 74 74 73 73 73 74 75 75 75 74 72 73 73 73 74 74 74 72 73 74 74 76 75 75 75 74 74 75 76 74 73 72 73 72 68 70 68 68 69 69 69 69 69 70 71 71 71 71 73 73 73 73 73
70 70 69 69 69 70 71 72 73 74 74 74 74 74 73 74 74 72 72 71 73 72 72 74 73 73 72 74 75 74 75 74 75 74 74 74 75 75 75 74 71 71 72 71 70 69 67 69 69 68 68 67 68 69 69 69 69 70 71 72 72 72
68 67 67 68 68 68 69 71 71 72 72 72 72 71 71 70 72 72 71 71 71 72 72 73 73 72 71 72 73 73 74 74 74 74 74 74 74 73 73 73 71 70 70 72 71 70 69 69 68 67 66 66 68 69 69 69 68 68 70 71 71 72
65 65 65 65 66 67 67 67 67 69 70 70 70 70 70 69 71 72 73 70 71 71 70 71 73 72 71 70 71 71 73 74 74 74 73 73 73 73 71 71 70 69 68 68 69 69 69 68 67 66 65 66 67 67 68 68 67 68 69 70 72 72
65 65 65 64 65 66 66 66 67 68 69 70 70 69 69 70 70 70 69 70 70 70 71 71 70 70 69 70 71 71 72 73 74 74 73 73 73 73 73 72 71 69 68 67 67 68 69 70 67 64 66 67 68 70 69 67 66 66 66 68 71 70
65 65 65 66 66 67 67 69 68 68 68 69 69 69 68 68 67 66 67 68 68 69 69 69 69 71 69 70 71 71 72 71 69 70 69 70 71 70 71 71 70 67 68 66 66 68 68 70 67 65 63 63 64 65 66 67 66 66 65 67 68 68
65 66 66 67 67 67 67 68 68 68 69 68 69 69 69 69 69 68 68 67 67 68 70 70 69 70 70 70 70 70 72 70 69 68 67 67 66 65 66 66 67 66 66 69 66 67 67 72 69 68 68 65 60 61 64 66 66 66 66 66 66 68
66 67 67 68 68 68 68 68 68 68 69 68 67 67 66 67 66 66 66 68 68 69 70 69 69 70 70 70 70 70 71 69 69 68 67 67 66 66 66 65 67 67 66 65 66 65 69 70 71 68 61 64 62 63 60 62 63 65 67 67 67 68
66 66 67 67 68 69 69 68 68 68 68 66 66 65 66 65 65 66 67 66 66 69 68 68 68 68 69 70 70 70 70 70 69 68 69 68 66 67 68 69 69 69 68 68 66 66 66 67 70 73 69 64 62 60 62 64 64 64 67 66 66 68
66 66 66 67 69 68 68 67 66 64 63 63 63 64 65 66 65 64 65 67 67 68 68 68 68 67 67 70 70 70 71 72 70 69 68 67 69 66 66 68 69 70 70 71 69 66 64 67 69 69 70 70 70 67 66 65 65 60 66 66 66 67
66 67 67 67 69 68 67 67 67 66 66 66 65 66 67 68 67 67 67 66 67 67 67 67 67 67 68 70 69 69 71 73 71 71 68 67 67 66 66 67 70 70 71 70 69 66 65 65 67 69 69 69 68 69 71 66 63 66 59 62 64 66
67 67 67 68 68 68 66 65 65 65 66 65 65 65 66 66 68 68 67 67 67 66 66 66 66 67 68 69 69 69 72 73 72 71 68 67 66 66 67 66 67 68 69 71 69 69 67 67 66 67 69 68 68 69 71 70 71 69 67 62 61 66
66 67 66 67 66 67 67 66 65 64 63 65 65 65 66 67 67 68 66 66 66 65 65 66 66 66 66 67 68 69 71 72 71 69 68 69 67 67 67 67 66 67 68 70 71 69 69 68 68 69 68 67 69 70 70 70 71 71 69 67 64 64
67 66 67 66 66 66 66 65 64 65 66 66 65 64 65 66 66 66 65 66 66 65 65 65 65 66 66 67 67 69 70 71 70 69 68 67 66 66 67 69 69 68 69 70 69 69 70 70 71 72 71 69 68 68 69 68 69 69 68 70 67 65
66 66 66 66 66 66 66 66 66 67 67 66 66 65 64 65 66 64 63 64 64 65 65 65 66 65 65 66 68 69 69 68 69 69 69 68 66 67 68 70 70 69 70 70 70 69 70 71 72 71 70 70 70 70 69 68 69 69 68 66 68 66
66 66 66 66 65 66 65 66 67 67 66 66 65 65 65 66 67 65 65 64 64 65 64 65 65 65 65 66 67 68 69 66 66 68 69 68 67 68 70 71 70 70 70 70 70 69 70 70 69 70 70 71 71 72 72 72 72 71 70 70 69 68
63 64 65 65 64 64 64 63 63 64 64 64 64 65 66 66 66 66 67 65 63 63 63 63 64 64 65 66 66 66 67 67 67 67 67 67 67 69 70 69 70 70 70 69 70 70 70 70 70 70 70 71 72 72 72 74 74 72 72 72 71 69
61 63 63 64 64 64 64 64 64 65 65 65 65 66 67 67 67 66 68 67 65 63 63 64 64 65 64 64 64 65 67 68 69 68 66 67 67 68 69 69 70 70 71 70 70 69 70 71 71 71 71 70 71 72 72 74 73 73 71 70 70 70
58 59 59 61 63 65 65 65 66 66 67 67 67 67 67 67 67 66 66 67 65 64 62 63 64 65 66 65 64 64 65 66 67 67 67 66 67 67 68 69 69 69 70 71 70 69 69 71 71 71 68 69 69 69 69 73 73 73 74 73 72 71
57 57 57 58 60 62 64 66 67 66 67 66 67 67 67 66 66 66 66 66 66 64 64 64 65 65 65 65 64 64 64 64 66 67 67 67 67 67 67 67 67 67 67 71 70 69 69 70 70 70 70 70 70 70 71 71 73 74 75 75 74 73
56 58 58 58 58 60 61 63 64 65 65 65 65 65 65 66 66 66 66 66 66 66 66 66 65 65 66 64 64 64 64 65 64 65 66 67 67 68 68 67 68 68 68 69 70 71 71 69 69 67 67 68 71 72 72 72 73 73 73 73 74 74

ECMWFFLT2_sfc_temp_072.txt.gz
Temp
79 80 82 83 82 81 79 76 76 75 75 75 75 75 75 75 75 76 77 75 74 79 80 80 79 82 75 79 75 74 75 75 75 75 75 75 74 74 75 74 74 73 73 73 73 72 72 72 72 72 73 74 73 82 84 84 84 85 85 84 83 82
79 78 81 82 82 82 80 79 81 79 80 78 77 76 77 79 78 81 77 77 79 81 81 83 82 79 82 79 78 74 74 75 75 75 74 74 74 74 74 74 74 73 73 73 73 80 77 73 72 72 73 73 79 84 83 84 85 86 86 84 82 78
77 78 80 83 82 82 81 82 82 81 81 78 79 80 81 81 83 83 82 82 80 81 82 83 82 82 82 77 78 74 74 74 75 74 74 74 74 74 74 74 73 73 74 72 81 84 84 83 79 73 73 78 85 84 83 83 84 85 85 83 81 74
79 79 77 79 81 83 82 83 83 83 82 82 81 82 82 82 82 82 81 80 79 81 82 82 79 78 78 80 78 75 74 74 74 74 74 76 74 74 74 73 74 74 75 80 87 86 87 86 83 81 83 85 85 83 84 84 85 84 84 84 82 74
81 80 80 82 82 83 83 83 83 83 83 81 80 82 82 83 82 81 81 81 81 81 82 83 80 81 82 82 82 81 79 80 80 80 75 83 82 80 79 82 79 79 84 86 87 86 86 85 84 84 84 84 83 84 84 85 86 86 85 81 78 74
80 80 82 83 84 82 80 83 83 83 83 84 83 82 82 82 82 80 81 81 82 81 80 82 81 81 82 82 82 83 83 83 82 81 82 84 84 82 82 83 82 83 85 87 86 85 85 85 84 84 85 84 84 84 86 87 87 86 83 81 78 74
81 81 82 84 84 84 84 84 83 84 83 83 83 82 82 83 82 82 82 81 80 81 80 81 81 80 79 83 82 82 83 82 82 82 83 84 82 82 82 82 84 84 86 86 87 86 85 85 85 85 84 85 85 85 85 87 87 86 84 81 78 73
82 82 82 83 83 83 84 83 82 82 83 82 82 82 82 82 82 81 80 81 81 82 81 79 80 80 80 82 82 81 81 81 82 83 84 83 81 83 83 82 82 85 86 86 87 85 86 85 84 84 84 84 84 84 85 86 85 85 84 83 80 75
82 82 82 82 82 83 83 82 82 82 82 81 82 83 84 83 81 82 81 81 81 80 81 80 77 81 81 80 82 82 81 83 83 84 83 83 82 82 82 82 82 84 85 85 85 84 85 85 84 84 84 84 84 83 83 84 84 85 85 84 83 77
82 82 82 83 82 83 82 82 82 82 83 81 83 83 83 83 83 81 80 81 81 80 80 80 80 81 81 80 81 81 81 82 82 83 83 82 84 83 82 83 83 84 86 85 85 84 84 84 85 84 85 83 82 83 83 83 84 85 83 83 81 78
82 81 83 84 83 83 82 82 83 83 83 82 83 83 82 83 83 82 81 81 82 81 80 80 80 81 82 81 80 80 81 82 82 82 83 83 83 83 83 82 82 84 84 85 84 84 85 83 84 84 84 85 82 83 82 82 83 83 83 81 81 79
81 80 81 84 82 82 82 83 83 83 83 83 82 83 83 82 81 83 82 80 80 81 80 79 78 80 80 81 81 81 82 81 81 83 82 83 83 83 83 84 84 83 82 83 83 83 84 83 83 84 84 81 82 82 82 81 81 80 81 82 80 80
80 78 79 81 82 82 82 83 82 82 83 82 82 82 82 82 81 82 81 80 79 80 80 78 78 79 79 81 81 80 81 81 81 81 81 81 82 82 82 82 81 82 81 81 82 81 83 82 81 81 81 81 81 81 80 80 80 79 79 81 81 81
77 76 72 72 74 79 81 82 82 83 83 82 82 82 82 81 81 81 81 80 80 80 79 79 79 78 79 80 79 80 80 80 82 82 81 80 81 82 82 80 81 81 79 80 79 80 81 80 81 81 80 81 81 79 79 79 79 79 79 79 80 80
71 73 72 71 70 72 73 78 81 82 83 81 82 82 83 81 80 81 82 81 80 77 77 79 79 77 79 80 79 79 80 81 82 81 80 80 81 81 80 80 81 80 79 79 80 80 81 80 79 79 79 79 78 78 78 78 78 79 79 78 79 80
70 73 72 72 72 72 74 74 75 80 81 81 82 82 82 82 82 83 82 81 81 79 75 75 76 73 75 79 80 80 80 81 81 81 80 79 79 80 80 79 80 80 77 78 79 78 80 78 78 78 77 77 76 77 78 78 78 79 80 80 80 80
72 73 72 72 74 76 76 77 77 78 80 80 81 82 82 82 81 81 83 82 81 79 78 74 75 78 78 78 79 80 80 79 79 80 79 79 78 80 79 79 79 79 79 77 78 78 77 78 77 76 76 76 75 76 77 78 78 78 79 79 79 79
74 75 74 73 74 75 77 77 79 80 79 80 80 82 82 83 82 81 81 81 81 80 78 76 73 73 77 78 79 79 79 78 79 79 79 79 79 80 79 78 76 77 78 78 77 77 76 77 77 76 75 75 75 75 77 77 77 78 79 78 78 78
74 73 72 73 74 74 75 76 78 78 78 79 80 81 81 81 82 81 81 80 81 80 78 77 73 69 71 75 78 78 78 78 79 79 78 78 78 79 78 77 76 76 76 79 79 78 77 77 76 75 74 74 74 75 77 77 77 77 78 78 77 78
75 74 72 73 74 74 75 75 76 78 78 79 79 80 80 80 80 81 81 80 80 79 78 76 73 70 68 72 73 75 77 77 77 78 77 77 78 79 75 74 75 75 75 77 79 78 77 76 75 74 72 73 74 75 75 75 75 75 76 76 77 78
76 75 75 74 75 76 73 74 76 76 76 78 78 77 77 78 79 79 80 81 80 79 77 74 67 68 68 69 69 70 73 75 77 77 77 77 78 79 77 75 75 75 74 75 76 77 77 76 74 71 72 72 73 75 75 74 73 74 74 76 77 76
78 76 75 76 76 75 76 76 76 76 77 78 78 76 76 77 77 77 77 78 78 78 77 76 71 69 69 69 69 68 68 69 72 77 77 78 78 77 77 76 76 74 77 75 74 76 76 75 70 70 68 68 70 72 73 73 73 73 74 76 75 73
76 75 75 75 76 75 76 77 77 77 78 77 78 79 79 79 78 77 77 77 77 75 75 75 74 70 68 69 68 67 67 68 68 74 75 75 76 76 76 75 75 75 74 75 75 76 75 75 72 71 72 70 67 67 69 71 73 74 74 74 74 75
73 73 73 74 74 76 76 75 76 76 76 77 77 76 75 75 76 75 74 76 76 75 74 74 75 74 71 70 70 67 67 68 70 74 75 74 74 74 75 75 75 75 75 72 75 73 73 74 71 69 63 67 70 69 64 65 69 72 74 73 74 74
73 73 74 73 73 74 74 74 74 74 74 73 74 73 72 73 74 74 74 73 73 75 74 76 75 73 73 70 69 67 67 68 68 71 75 74 73 75 76 76 76 74 74 74 73 72 72 73 71 74 70 67 67 66 68 72 72 71 73 73 73 75
76 75 74 74 74 73 73 72 70 68 66 67 67 69 71 72 73 73 73 74 74 74 75 76 76 74 71 69 69 68 68 67 69 69 71 74 75 73 74 76 76 75 73 74 73 70 70 72 74 73 72 72 71 69 68 73 72 67 73 75 74 74
75 75 74 74 74 73 72 72 71 70 69 69 69 72 74 75 75 74 71 71 75 75 75 74 75 75 71 70 69 69 68 67 68 69 72 73 72 72 73 77 77 75 74 71 67 69 70 71 71 69 73 75 74 75 73 73 69 72 67 70 73 72
75 74 73 73 73 74 73 73 72 71 71 71 70 71 72 71 72 72 73 73 73 75 75 75 74 73 72 70 69 68 67 67 66 66 69 73 72 72 73 75 74 74 74 70 66 69 70 72 66 70 74 73 73 74 76 76 76 74 71 66 68 73
73 74 74 73 71 71 71 71 71 72 71 73 74 73 74 73 72 72 72 74 73 73 72 71 71 70 71 70 68 67 67 67 66 67 69 72 72 71 70 71 70 71 73 71 72 69 68 67 70 70 72 72 74 75 76 76 76 75 72 70 70 69
70 72 73 73 72 71 72 72 71 71 70 71 73 72 73 73 73 73 73 73 74 73 70 69 69 70 70 69 67 67 67 67 67 67 68 68 71 70 69 70 70 71 72 71 71 69 67 70 71 73 72 74 72 73 74 74 73 74 73 74 70 70
66 68 70 72 72 71 71 71 69 68 68 69 69 70 70 71 73 72 73 74 73 73 73 72 69 68 68 68 67 67 67 68 67 68 68 68 68 70 71 70 71 72 71 70 68 66 67 70 71 68 68 74 74 75 74 72 73 73 73 72 72 73
65 65 67 68 70 71 71 70 69 68 67 67 68 69 69 69 72 73 74 73 74 71 71 72 72 70 69 69 68 67 68 69 68 68 67 68 68 69 71 72 71 72 72 71 69 69 70 72 71 67 70 75 76 77 76 75 71 75 75 74 73 73
65 67 67 67 66 68 70 71 71 70 70 70 69 70 71 71 73 74 74 74 73 72 71 71 71 69 68 69 69 68 68 67 67 67 67 67 67 69 71 69 71 72 71 71 69 71 71 68 70 65 68 75 77 77 77 77 76 75 76 77 75 73
64 66 67 67 67 66 68 70 70 70 70 70 70 71 71 72 73 74 74 74 73 73 72 70 72 71 72 71 70 69 68 68 68 68 68 69 69 70 71 71 71 70 69 70 70 71 73 74 74 70 74 75 75 77 78 78 76 75 75 75 74 74
63 65 66 66 66 66 67 67 68 69 69 71 71 72 73 73 73 73 74 74 73 73 73 73 72 72 73 72 71 70 69 68 69 69 69 68 68 69 69 70 72 69 68 69 67 67 73 74 71 72 69 70 76 77 76 72 76 76 79 77 76 75
63 63 64 63 63 63 64 67 68 67 68 70 72 72 73 73 74 74 73 73 73 73 73 73 74 73 73 73 72 71 71 70 70 70 70 70 70 70 69 68 68 67 67 71 68 67 72 73 72 73 69 74 76 77 77 78 79 78 79 79 78 77
62 62 62 62 63 64 63 64 65 66 67 68 70 70 70 72 72 72 74 73 72 73 73 73 73 73 73 73 73 72 69 68 69 69 70 71 72 72 71 69 68 68 70 71 71 71 72 73 71 72 66 69 74 76 77 77 78 78 77 77 79 78

ECMWFFLT2_sfc_temp_075.txt.gz
Temp
78 81 82 81 80 78 77 76 76 76 75 76 76 76 75 75 75 76 76 76 75 78 79 79 78 81 75 78 75 75 76 76 76 75 75 75 75 74 75 74 74 73 73 73 73 72 73 73 72 73 73 74 74 78 86 86 87 85 85 83 80 80
75 75 75 76 78 79 76 77 77 77 78 77 76 77 77 79 78 80 77 77 79 80 80 80 81 79 80 78 77 75 75 75 75 75 75 74 75 74 75 74 73 74 73 73 72 78 76 73 73 73 74 73 76 85 85 86 87 87 85 82 80 76
75 75 75 77 77 78 78 77 79 79 79 77 78 78 80 81 82 82 82 82 78 80 81 81 80 81 82 78 78 75 75 75 75 75 74 74 74 75 74 74 74 73 73 72 77 83 82 81 79 74 74 76 82 86 85 85 86 85 83 80 79 74
74 75 77 78 77 77 79 78 77 79 77 78 80 80 80 82 82 82 81 78 78 79 76 76 81 81 79 79 76 74 74 75 75 74 74 76 74 75 75 74 74 74 74 79 83 87 86 85 84 81 81 84 86 85 86 86 87 85 82 81 80 74
77 77 78 78 78 77 78 77 76 75 72 74 77 79 78 78 77 79 75 75 78 77 76 78 81 80 81 80 79 78 77 78 78 79 74 81 80 80 78 80 79 77 82 83 87 88 88 86 85 86 86 86 86 86 87 86 86 86 82 79 77 74
77 78 76 75 79 79 78 76 75 73 73 73 75 76 76 74 75 77 74 74 78 77 78 77 77 79 81 81 81 80 80 81 80 81 80 83 83 81 82 83 82 82 83 85 87 87 87 86 86 86 86 85 85 86 88 89 87 85 81 79 77 74
77 77 77 80 78 78 77 75 74 73 72 72 74 76 75 76 75 74 74 73 74 76 77 76 76 79 80 81 81 83 83 82 81 82 81 84 83 83 84 84 84 83 84 86 88 88 87 87 87 87 86 87 87 87 87 87 87 85 83 80 76 73
75 77 77 76 76 77 73 73 73 73 72 73 74 73 73 74 75 74 76 75 76 75 73 72 72 74 78 78 81 82 83 83 83 83 83 85 83 84 84 85 83 85 85 87 88 87 88 87 86 86 86 86 86 86 87 88 86 86 84 79 78 74
74 72 72 72 73 72 72 72 72 72 73 74 74 74 77 74 75 74 74 76 75 74 70 72 73 71 72 75 78 80 81 82 82 84 84 85 84 81 83 84 84 85 86 87 87 86 87 87 85 85 86 86 85 84 85 86 86 88 86 84 79 75
74 73 71 74 71 73 72 72 72 72 72 76 74 78 80 82 82 80 83 82 79 76 74 74 76 73 71 72 74 77 80 80 81 85 84 83 84 84 83 84 84 85 87 87 87 86 86 85 87 85 86 84 83 84 84 85 86 87 86 83 78 75
75 74 73 72 71 72 73 74 71 73 75 78 80 81 83 84 84 84 83 82 82 80 77 76 76 75 73 71 70 74 77 79 81 83 84 83 84 83 84 83 83 83 85 87 86 87 86 85 86 86 85 86 83 84 84 85 85 86 86 84 81 79
72 72 70 72 72 73 74 76 78 78 79 82 83 83 85 84 84 85 84 82 81 77 78 76 74 75 73 70 70 73 76 79 82 83 83 84 84 84 83 84 85 84 85 85 85 86 86 85 85 86 86 83 83 84 84 84 84 84 84 83 82 81
74 72 73 72 74 75 77 81 80 79 80 82 82 83 83 84 84 84 82 82 82 81 80 76 76 77 73 71 71 71 72 74 79 81 82 83 84 84 83 83 82 84 83 83 83 84 86 85 84 84 84 82 83 84 84 84 83 83 82 83 82 82
76 75 74 75 74 76 78 79 82 83 83 82 83 83 83 84 84 84 84 82 82 82 80 80 80 77 76 75 72 70 70 73 79 79 80 81 81 82 82 80 78 83 81 81 81 82 83 82 84 84 82 83 83 83 83 83 82 81 82 82 82 81
76 76 76 77 78 79 79 82 84 84 84 83 83 83 85 84 83 83 85 84 82 81 81 81 80 77 76 74 72 71 70 69 73 78 76 80 80 81 81 80 82 82 81 78 82 81 82 81 81 81 81 82 82 81 81 81 81 81 81 81 81 81
77 78 78 79 80 80 81 81 83 83 83 82 83 84 84 84 83 85 84 84 82 82 82 81 80 79 76 77 75 72 70 72 73 78 78 77 76 76 79 80 82 82 79 79 80 80 81 81 81 80 80 80 80 80 80 80 79 80 82 81 81 80
78 79 79 80 80 80 80 82 82 83 84 83 83 83 83 84 83 82 84 84 82 81 81 80 80 79 77 77 77 72 69 71 73 76 77 73 76 77 76 79 80 81 81 77 80 80 79 80 80 79 79 79 78 79 78 78 78 79 80 80 79 79
79 80 80 79 79 80 81 81 83 83 82 83 82 84 84 85 84 84 83 83 84 82 80 81 80 78 77 77 76 73 70 70 70 72 72 71 73 75 73 79 77 79 80 79 79 79 78 80 79 79 78 77 77 78 78 77 78 77 77 78 78 76
79 79 79 79 79 80 80 80 80 82 82 81 82 82 83 84 84 84 83 80 82 83 81 81 79 77 76 76 75 73 70 70 70 70 68 69 70 71 73 78 77 75 78 80 80 79 79 79 78 78 77 76 77 77 77 78 75 75 73 77 75 74
78 79 79 78 78 78 79 80 79 81 80 81 82 82 82 83 83 83 83 82 82 81 78 79 79 76 75 73 73 73 72 70 68 68 69 69 68 69 72 73 76 75 74 78 77 79 80 78 78 76 75 76 77 76 73 74 75 74 76 73 72 74
79 78 77 78 77 77 77 78 78 79 78 81 81 80 80 81 82 82 82 82 77 72 76 79 72 69 70 71 72 72 71 70 70 70 70 70 71 72 70 72 75 74 73 72 76 79 79 78 76 73 74 74 74 76 75 75 73 73 73 76 72 75
79 79 79 78 77 77 78 79 78 78 78 76 75 79 79 81 80 80 79 77 76 77 77 78 73 71 72 72 71 71 71 71 71 70 70 71 71 71 69 70 73 70 73 72 74 79 78 77 73 71 68 70 70 73 72 71 71 73 75 74 72 74
77 77 78 78 79 78 78 79 79 77 73 71 71 68 69 69 71 70 70 71 73 74 76 78 73 74 74 73 72 71 70 69 70 70 69 68 68 68 67 69 68 70 71 73 73 77 77 76 71 73 74 70 66 64 65 67 69 71 72 73 74 76
76 77 77 78 78 78 78 78 79 78 78 77 74 73 72 72 73 74 71 73 72 74 76 79 79 78 75 74 73 72 72 69 70 70 69 67 67 67 67 67 67 68 72 68 71 75 77 76 76 75 67 67 68 67 62 65 66 69 73 72 74 74
77 77 78 78 78 78 78 77 77 78 78 76 76 76 74 77 76 75 74 73 73 76 76 79 79 77 75 74 74 73 71 71 69 70 69 68 67 68 67 68 68 68 70 69 70 75 75 76 76 77 74 69 64 61 62 68 68 69 73 69 73 74
77 77 78 77 77 77 76 76 75 74 73 73 73 75 74 73 72 75 76 78 76 77 79 80 79 78 77 74 72 73 72 70 68 68 69 69 69 68 67 68 68 68 68 73 70 73 72 75 75 75 75 74 72 67 66 67 67 62 70 71 72 74
77 77 77 77 78 77 76 76 75 75 75 74 74 75 75 75 75 76 77 76 78 78 79 78 78 79 79 77 74 71 72 71 69 68 68 68 68 68 67 67 68 70 68 68 71 73 71 73 73 74 74 74 73 72 74 67 65 66 61 66 66 71
74 74 75 77 78 77 75 75 75 75 76 75 75 74 75 76 77 77 77 77 78 78 78 79 78 79 79 77 73 70 71 70 69 68 66 66 67 68 68 68 68 70 73 76 75 74 72 73 68 69 73 72 72 73 76 73 72 68 67 63 64 70
71 73 74 74 75 76 76 76 76 76 74 76 76 76 78 78 77 77 76 77 76 78 79 78 79 78 78 77 74 71 70 67 68 68 66 67 68 69 68 68 67 68 70 74 74 74 73 69 70 70 70 68 71 73 74 74 73 72 64 68 65 66
72 73 73 73 75 75 75 74 74 73 72 73 75 76 76 76 76 77 76 76 76 77 78 78 77 77 77 78 76 75 72 70 69 67 66 67 68 69 68 69 69 68 69 68 72 73 73 68 70 73 72 70 67 69 72 71 70 70 73 70 69 71
70 72 72 73 73 73 74 75 75 74 73 73 73 73 73 74 76 76 75 76 77 77 77 78 77 76 76 77 76 75 72 71 69 67 66 66 67 68 68 68 69 68 67 67 68 69 69 69 75 74 72 72 71 71 69 68 69 71 71 70 69 70
69 69 70 70 71 72 73 74 74 74 73 73 73 73 72 72 74 76 76 75 77 77 77 77 77 77 75 76 75 74 74 72 69 67 65 65 67 69 70 70 69 67 67 67 68 68 68 67 73 73 72 73 73 73 71 69 70 72 72 73 72 70
67 68 68 69 69 70 71 71 72 72 72 73 73 73 74 74 75 75 76 74 74 73 75 76 76 75 75 75 74 73 72 71 71 69 68 68 69 70 70 70 69 69 67 67 66 68 66 70 72 71 72 73 72 72 70 72 73 71 72 74 74 72
67 68 68 68 69 69 69 70 72 72 72 72 72 73 74 74 75 76 76 73 71 69 68 71 75 74 75 75 75 74 73 72 73 73 71 70 70 70 70 69 69 68 68 68 68 66 68 71 70 70 72 72 72 72 71 70 69 70 74 74 72 72
67 68 68 68 68 67 68 68 69 70 71 71 71 72 72 73 74 74 73 74 72 69 69 69 72 76 76 75 75 75 74 73 72 72 73 70 70 70 70 71 70 69 70 68 69 68 68 69 68 70 70 72 71 71 70 69 70 74 77 76 75 76
68 68 69 68 68 68 68 68 68 68 68 68 69 70 71 73 74 74 73 72 72 71 70 69 68 68 71 74 75 74 74 74 73 73 73 71 70 68 71 71 70 69 67 68 67 69 70 70 69 69 68 69 71 71 72 71 72 71 72 76 78 77
68 69 69 69 69 69 69 68 67 67 67 67 67 67 68 70 72 73 73 74 74 73 72 68 68 69 71 69 72 74 74 74 73 73 73 73 73 72 72 71 70 68 68 70 71 72 70 70 68 67 66 67 70 72 71 70 70 70 72 76 76 77

ECMWFFLT2_sfc_temp_078.txt.gz
Temp
79 78 78 78 77 76 76 76 76 76 76 76 76 76 75 75 75 76 76 75 75 76 76 75 75 76 75 75 74 75 75 76 75 75 75 75 75 75 74 74 73 73 73 73 73 73 72 72 73 73 74 74 74 73 75 79 80 77 76 75 73 74
78 78 78 77 77 77 76 77 77 76 76 76 76 76 76 76 77 76 76 75 76 76 76 76 76 77 75 76 75 75 76 75 75 75 74 74 75 75 74 74 73 73 73 73 73 72 72 73 73 74 73 74 72 73 78 79 79 78 76 74 73 73
76 77 76 75 76 77 77 77 77 76 76 76 77 76 76 77 77 77 77 77 75 74 74 75 76 77 78 76 76 75 75 75 75 75 74 75 75 75 74 73 74 73 73 72 73 73 73 73 73 75 74 73 72 74 80 79 77 76 75 73 72 74
75 73 73 73 72 74 75 74 75 76 76 75 74 74 73 74 75 76 77 74 72 73 72 72 75 80 78 76 74 75 75 75 75 74 74 74 75 75 75 74 73 74 73 74 74 76 77 76 74 73 72 73 74 78 78 78 78 76 74 75 74 74
75 74 72 70 70 69 70 70 72 72 73 73 72 71 71 71 72 72 73 73 73 73 73 71 71 72 75 76 74 74 73 74 74 74 74 74 74 75 74 74 74 73 73 75 76 78 78 77 76 76 75 75 78 79 80 79 77 76 74 73 72 74
73 72 71 70 70 71 71 69 70 72 73 73 73 72 72 71 71 72 73 73 75 73 72 70 71 72 72 75 75 74 73 74 75 75 74 74 76 74 74 76 75 75 75 77 79 79 80 78 78 79 78 79 78 79 80 79 76 74 72 71 72 74
72 71 71 71 71 70 69 70 71 71 73 73 72 72 71 71 71 72 73 73 72 73 70 70 70 70 70 71 74 75 74 75 75 75 75 75 76 76 76 76 76 75 77 79 81 82 82 81 79 80 78 80 79 80 79 79 76 74 72 71 73 74
72 72 71 72 71 70 69 69 71 72 72 72 72 71 72 72 71 71 73 73 73 73 72 70 70 70 70 70 70 74 76 76 75 75 76 76 77 77 77 76 77 79 79 81 82 81 81 81 81 79 80 79 80 79 78 79 77 75 73 71 72 73
72 72 71 72 71 70 70 71 71 71 71 72 72 72 72 73 72 72 74 74 73 73 72 72 72 71 71 71 71 72 73 75 77 77 76 76 77 76 76 77 76 78 78 80 80 79 81 80 79 79 78 79 79 78 78 78 78 76 74 72 71 72
73 73 72 73 71 70 71 71 71 71 72 73 72 73 74 73 74 73 73 74 74 73 72 73 73 72 72 71 71 71 71 71 73 76 76 76 76 76 76 76 77 78 81 80 81 79 79 79 80 78 78 77 77 78 76 77 78 77 75 72 71 71
75 75 74 73 72 72 72 72 72 72 73 74 74 74 73 73 73 72 72 73 73 74 73 74 74 73 72 72 71 71 70 71 71 71 69 73 77 77 77 76 77 77 78 78 74 77 79 77 79 79 79 79 76 77 77 76 77 77 74 72 71 71
76 75 73 73 72 72 72 73 73 73 73 75 76 75 73 73 72 72 72 72 72 73 74 74 74 74 73 72 71 71 70 70 69 69 68 68 73 77 77 79 79 78 77 74 72 71 77 77 78 80 80 77 76 76 77 76 76 77 75 73 72 71
76 75 74 73 73 74 74 75 75 74 75 76 76 77 75 74 72 71 71 72 72 72 74 74 73 75 74 72 71 70 70 70 69 70 69 70 72 76 77 76 76 77 74 73 70 70 74 78 77 77 77 77 77 77 76 76 76 75 74 75 73 72
75 74 75 75 75 76 75 76 77 77 77 77 77 77 77 76 72 71 70 70 70 72 73 75 74 73 73 73 71 71 70 70 70 70 70 70 70 72 73 75 76 76 74 70 69 70 66 73 77 78 76 77 76 76 76 76 74 75 74 74 74 72
75 75 76 76 75 76 77 78 79 78 79 78 78 77 77 76 74 73 72 69 69 70 71 72 73 72 70 70 72 71 70 71 71 71 69 70 70 69 69 71 74 73 71 71 71 73 72 73 74 73 74 75 76 75 74 73 74 75 76 75 75 74
76 76 76 77 77 77 78 78 79 80 78 79 78 78 77 77 76 76 75 76 72 71 71 71 72 72 72 73 74 72 71 72 71 70 69 69 70 67 69 70 73 74 68 68 72 68 69 70 71 69 70 74 74 73 74 74 73 74 75 75 74 74
76 77 77 78 78 78 78 79 79 78 79 76 74 73 72 72 72 73 72 71 71 72 71 70 70 72 70 71 72 72 73 72 71 70 69 68 68 70 70 72 72 73 71 68 71 71 69 69 68 68 70 73 74 74 72 72 73 73 75 73 73 73
78 78 77 77 77 77 77 78 77 78 76 77 76 75 73 72 70 70 69 69 69 70 71 71 73 73 71 71 70 69 71 71 71 70 69 68 67 68 69 69 68 70 72 71 68 68 69 69 67 68 67 70 73 73 72 72 72 72 72 72 71 71
77 78 77 78 78 78 78 77 77 76 75 76 75 75 73 70 69 70 69 70 69 70 72 74 75 74 73 72 73 71 73 72 71 69 69 68 68 68 68 69 68 68 69 67 65 65 66 68 68 67 67 68 72 72 72 72 72 71 69 69 70 72
77 77 77 77 77 77 77 76 76 76 76 73 72 73 74 71 70 69 70 69 68 69 72 72 73 74 74 73 73 73 72 72 70 69 68 67 67 67 67 67 67 67 67 67 66 66 66 66 65 65 65 68 72 72 72 71 70 70 69 69 70 70
76 77 77 76 76 76 74 75 75 76 75 75 73 72 71 71 71 70 71 70 70 70 71 73 72 71 72 72 72 72 72 72 71 69 68 68 68 68 68 68 68 67 66 65 65 67 67 67 64 63 65 67 69 72 71 70 70 69 69 70 69 69
76 77 76 76 75 75 76 76 75 74 74 74 74 71 69 69 70 70 70 71 71 71 71 71 71 71 71 71 71 71 71 71 71 70 69 69 69 69 69 68 68 65 67 65 64 66 67 65 62 62 62 64 66 68 67 69 68 68 68 69 68 69
75 76 75 76 75 75 76 76 75 75 75 74 73 71 72 71 71 71 71 71 71 72 72 71 71 71 71 72 72 71 71 70 71 70 68 68 69 68 68 68 67 66 64 65 65 68 67 66 64 65 66 65 61 60 63 64 67 68 69 68 69 69
75 76 76 76 76 76 76 77 77 77 77 75 74 74 73 73 72 71 70 71 72 72 73 73 73 72 73 73 73 71 71 70 70 70 69 68 68 67 68 67 66 66 65 63 63 64 68 68 65 62 59 62 62 62 58 61 63 66 68 69 69 68
75 75 75 76 76 76 75 75 76 76 76 75 74 73 72 71 71 72 72 72 72 73 73 73 74 74 74 73 73 72 71 71 70 69 68 67 68 68 68 68 67 65 65 64 63 63 66 68 67 66 65 63 60 57 60 62 64 63 67 67 68 69
73 74 75 76 76 75 74 73 73 72 71 70 70 69 68 69 71 70 71 74 75 75 75 74 74 75 75 75 73 73 72 71 69 69 68 67 68 68 67 67 68 66 65 66 65 65 64 67 67 67 69 68 66 62 61 63 63 58 66 68 67 69
72 73 73 73 75 74 74 73 73 73 73 72 70 71 72 74 73 73 74 74 75 75 75 74 74 76 75 75 74 73 72 71 71 69 69 67 66 67 67 67 68 67 66 66 65 62 63 64 65 65 66 67 69 68 68 63 60 61 58 62 64 65
72 72 72 73 73 73 73 72 72 73 73 72 72 72 73 73 75 74 74 74 75 75 75 75 74 74 76 74 74 73 72 71 70 70 69 67 67 67 67 68 68 68 66 66 65 63 63 63 62 62 64 63 64 68 70 69 66 61 62 59 60 65
70 71 71 72 71 72 73 72 72 72 71 72 73 73 74 75 74 74 73 73 72 73 73 74 74 74 73 73 73 72 72 69 68 67 68 68 67 67 67 67 66 65 64 65 65 65 64 63 63 61 63 62 63 67 68 68 69 68 63 61 60 61
68 69 70 70 70 71 71 71 71 71 71 71 72 72 73 72 72 73 72 71 67 69 72 72 73 73 73 74 69 69 70 70 69 68 67 67 67 67 65 66 66 65 66 66 66 65 64 64 64 64 64 64 64 66 66 66 66 65 65 64 60 62
67 68 68 68 69 69 70 71 70 69 69 69 70 71 70 70 72 72 72 71 69 69 70 71 72 71 69 69 69 70 68 70 70 68 67 66 66 66 66 66 67 66 66 66 65 65 64 64 64 64 65 66 67 67 65 64 64 65 64 61 60 61
67 68 68 68 68 68 68 68 68 69 69 69 69 69 69 69 70 71 70 70 71 71 70 70 70 68 68 68 67 67 68 68 70 69 68 67 67 67 66 66 66 65 66 67 66 65 64 63 64 63 64 66 67 68 67 66 68 67 66 64 64 62
66 67 67 67 67 67 67 67 67 67 67 67 67 67 69 69 69 69 70 70 69 69 69 68 69 68 69 68 67 68 67 65 68 69 69 68 67 67 67 66 66 67 66 67 66 65 64 64 64 64 64 65 65 66 67 68 69 67 67 67 65 62
66 67 67 67 67 67 67 67 67 66 66 66 66 66 67 68 68 69 69 68 69 68 68 68 68 68 68 68 67 68 68 68 69 70 70 70 69 68 68 67 67 66 67 67 67 66 66 66 65 66 66 64 64 64 66 65 67 68 66 66 65 64
67 68 68 67 67 67 67 67 67 67 66 66 66 66 67 68 68 68 68 69 69 69 68 69 68 69 69 67 67 66 66 66 68 69 70 70 69 69 68 67 66 66 66 67 66 66 65 66 65 66 65 65 64 64 65 64 66 67 68 67 66 65
67 67 66 68 67 67 67 67 67 66 66 66 66 66 67 67 67 67 67 67 67 68 69 68 69 68 68 68 67 65 65 66 67 68 68 68 68 67 67 66 65 64 65 67 66 66 65 66 66 66 66 67 66 64 66 66 68 67 68 67 66 67
67 67 67 67 66 67 66 66 66 68 66 66 66 66 66 66 66 67 67 67 66 67 69 69 69 70 69 68 68 67 66 65 66 66 67 67 66 66 68 67 65 64 64 65 66 65 65 65 66 66 66 67 67 65 64 68 69 68 67 66 67 66

ECMWFFLT2_sfc_temp_084.txt.gz
Temp
70 70 70 70 70 71 73 75 75 75 75 75 75 75 75 75 75 75 75 74 72 70 68 69 69 70 75 71 73 74 74 74 74 74 75 74 74 73 73 73 72 72 72 72 72 72 73 72 73 73 73 73 73 68 67 67 67 67 66 66 68 68
70 70 70 71 71 72 73 74 71 71 72 73 74 75 73 71 74 71 74 71 69 71 67 66 68 74 69 71 72 75 74 74 74 74 74 74 74 73 73 73 72 72 72 72 72 67 67 71 74 74 73 71 68 67 67 67 67 67 67 66 67 70
70 70 70 70 71 72 71 71 70 71 72 73 73 72 70 71 69 69 69 70 70 68 68 68 68 71 70 73 71 75 74 74 74 74 74 74 74 73 73 73 72 72 72 72 67 64 63 64 64 72 71 68 67 67 67 67 67 66 66 67 66 73
70 69 69 69 70 70 69 69 69 70 70 70 69 70 68 68 68 68 68 68 68 70 68 66 73 75 75 70 70 75 74 74 74 74 74 73 74 73 73 73 72 73 70 68 64 65 65 64 65 65 65 65 66 66 67 66 66 66 66 69 68 74
70 69 68 68 69 68 68 68 68 69 69 68 68 67 67 67 67 67 67 68 67 69 67 66 67 67 68 67 66 66 68 67 67 67 72 66 66 68 69 66 66 67 65 65 65 66 66 66 67 67 66 66 68 67 67 66 66 65 66 68 68 74
69 68 68 67 68 70 69 67 67 68 68 68 68 67 66 67 67 67 67 68 68 66 67 66 66 66 67 66 66 66 65 65 65 65 68 65 65 65 65 66 66 66 66 65 66 66 66 68 68 66 67 66 68 68 67 66 66 66 66 66 70 73
68 67 67 68 68 68 67 67 68 68 68 67 67 66 66 66 66 67 68 68 67 66 66 65 66 65 66 66 67 65 65 64 64 64 66 65 64 65 65 66 66 67 66 66 67 68 68 69 67 68 68 68 68 68 67 66 66 65 65 66 70 74
67 67 66 67 67 66 66 68 71 71 68 69 68 66 65 66 67 67 68 68 69 66 65 66 66 66 66 65 66 65 66 64 64 64 65 67 65 65 66 65 66 66 67 68 69 69 69 70 69 69 70 67 68 67 66 66 66 66 65 65 68 72
67 67 66 67 66 66 66 67 67 67 67 71 67 67 67 66 66 67 68 69 69 67 66 66 66 66 66 66 66 66 65 65 65 66 64 65 65 65 66 66 66 67 67 68 68 69 70 70 69 69 70 68 68 66 66 65 65 65 65 65 66 70
67 67 67 67 66 66 65 66 66 66 67 70 67 67 67 66 66 67 67 67 68 67 67 67 67 67 66 66 65 65 66 66 65 65 65 65 64 65 65 65 66 67 68 68 69 70 69 69 69 69 69 68 67 67 66 66 66 65 65 65 65 69
68 69 68 67 66 65 66 65 66 66 68 68 68 69 68 68 67 66 67 67 67 68 67 67 67 67 66 66 66 66 66 66 66 65 65 65 64 65 65 65 66 67 67 68 68 68 67 68 66 68 67 69 67 67 66 66 66 66 65 65 65 65
68 68 68 68 69 67 66 66 67 67 67 67 68 68 68 67 68 67 67 67 67 66 67 67 67 67 67 66 66 66 66 66 66 66 65 64 64 64 64 65 66 68 68 68 67 65 66 67 65 66 67 67 67 67 66 66 66 66 66 65 65 65
68 68 67 67 68 66 66 67 67 67 67 69 69 68 67 66 65 66 67 67 67 67 67 66 66 66 68 67 66 66 66 66 66 66 65 65 65 64 65 65 66 67 67 67 67 66 68 64 64 65 64 66 67 68 67 66 66 66 65 66 65 64
69 68 68 67 67 67 67 68 68 68 68 68 67 67 66 66 66 66 66 67 67 67 67 66 66 66 65 66 66 66 66 66 66 65 65 65 65 64 64 65 65 65 68 67 67 67 66 63 65 64 63 63 64 65 66 67 66 66 65 65 65 64
70 68 69 68 68 67 68 68 68 68 68 67 66 66 67 67 66 66 66 66 67 66 67 66 66 65 65 65 66 66 66 66 66 65 65 64 64 65 64 64 64 65 65 65 65 65 64 63 63 63 62 62 62 64 65 66 66 65 65 65 64 64
70 69 69 68 68 68 69 69 68 70 68 67 66 66 66 67 67 66 66 66 66 67 67 67 67 66 65 65 66 66 66 66 65 65 65 65 64 64 64 63 64 64 63 64 64 63 63 63 63 62 62 63 63 65 64 65 66 66 66 65 64 64
68 68 68 68 69 68 68 69 69 69 69 67 66 66 66 67 67 66 66 66 66 66 66 66 66 66 65 65 65 65 65 65 65 65 64 64 64 63 63 65 63 64 64 63 64 63 61 62 62 62 62 63 63 63 63 63 65 66 67 64 64 64
69 69 68 68 69 68 68 68 68 68 69 67 67 66 66 67 66 66 66 66 66 66 66 66 66 65 64 64 64 64 64 65 65 65 65 64 64 63 64 64 64 64 64 64 63 63 62 62 63 63 62 62 62 62 63 64 64 66 64 64 64 64
69 69 68 69 68 69 68 67 67 67 67 66 67 67 67 66 66 66 65 66 66 66 66 66 66 65 64 65 64 64 64 65 66 66 65 65 64 64 64 63 64 64 64 63 63 63 63 62 63 63 63 62 63 63 62 63 64 64 63 64 64 65
69 68 68 68 67 67 67 66 65 66 66 66 66 66 67 66 66 65 66 66 65 64 65 66 65 64 64 64 64 64 63 65 66 65 65 64 64 64 64 63 63 63 63 63 63 62 62 62 62 61 62 61 62 62 63 63 63 63 63 64 64 65
69 68 68 67 66 66 66 65 65 65 65 66 66 66 66 66 66 65 65 65 65 65 65 65 66 65 63 64 65 64 64 64 65 65 65 65 65 64 64 63 62 63 63 62 62 61 62 63 61 60 60 60 60 62 64 64 62 62 63 63 64 65
70 70 68 67 66 66 66 68 66 66 64 65 66 65 65 65 66 66 66 65 65 65 64 64 65 65 65 64 65 64 65 65 65 65 65 65 64 65 64 64 63 62 63 63 62 62 63 63 59 59 58 57 58 60 62 62 62 62 63 63 63 64
68 68 68 68 67 66 66 67 66 66 65 65 65 64 64 64 65 65 65 65 66 65 65 65 66 66 66 66 65 65 65 65 65 64 64 65 65 65 65 64 64 64 62 62 63 64 63 64 60 60 59 58 57 56 58 59 61 62 63 63 63 63
67 67 67 68 68 67 67 67 66 67 66 65 65 66 65 64 64 64 65 66 66 66 65 66 66 66 66 66 66 66 65 64 64 64 64 64 64 64 65 65 64 63 63 60 61 62 64 64 62 60 56 57 56 55 53 57 59 61 63 63 62 63
65 66 66 66 65 66 68 68 68 67 66 65 65 64 64 63 63 65 65 64 65 66 66 66 66 66 66 66 66 65 65 65 64 64 64 64 64 65 65 66 65 63 63 61 60 61 62 63 63 64 61 56 55 54 56 56 57 58 61 61 62 64
65 65 65 65 65 65 67 67 66 64 63 63 63 62 63 64 62 62 64 64 65 66 65 67 66 66 66 66 65 65 65 65 64 64 64 64 64 64 64 64 64 63 63 63 62 61 61 62 64 64 62 62 61 57 56 57 57 55 59 62 62 64
64 64 65 64 64 65 65 66 65 64 64 64 63 64 66 65 64 65 65 65 66 66 66 65 65 65 65 66 65 65 65 65 65 64 64 64 63 63 63 64 65 63 63 63 63 61 61 61 62 63 63 62 61 61 61 58 56 55 56 60 61 61
64 65 64 65 65 65 64 64 64 64 64 63 63 63 65 66 66 67 66 65 65 66 67 66 64 64 65 65 64 64 64 64 64 64 64 64 64 64 64 65 65 64 64 63 62 61 61 61 60 60 63 62 61 62 62 60 59 58 56 56 59 61
63 63 64 64 65 65 65 64 64 63 62 64 64 64 65 66 65 65 65 65 65 65 65 66 67 66 65 65 65 64 64 63 63 63 64 64 64 64 64 64 64 63 63 63 63 63 61 61 61 61 61 61 61 61 61 61 61 60 56 55 55 58
61 62 63 63 64 65 65 64 63 63 62 62 63 63 64 64 63 63 63 63 64 64 64 64 65 65 65 65 65 65 64 64 63 63 64 64 64 64 64 64 64 63 63 62 63 62 62 63 62 62 62 61 60 60 60 59 59 59 59 58 55 57
58 59 60 61 62 62 63 64 63 63 62 62 62 62 61 61 61 61 61 62 63 64 65 64 64 64 64 64 65 65 63 63 63 64 64 63 63 63 63 64 64 63 63 63 62 63 62 63 63 62 62 61 61 60 59 59 59 59 59 57 56 56
57 57 58 59 59 59 60 60 61 60 60 60 61 61 60 59 60 60 61 61 63 63 63 64 63 62 63 64 65 64 64 62 62 62 62 62 63 63 64 64 64 63 63 64 64 64 62 62 62 62 62 62 62 62 62 61 62 61 60 59 59 58
56 56 57 58 58 58 58 57 57 57 57 59 58 58 58 59 60 61 61 61 62 61 62 62 63 63 63 64 65 64 64 63 62 63 63 63 63 63 64 64 64 64 64 64 64 64 63 62 62 61 62 62 62 62 62 63 64 62 61 61 59 57
56 56 57 57 57 58 58 58 58 57 57 57 57 58 58 58 59 59 60 60 61 61 61 61 61 61 63 64 64 65 65 64 64 64 63 63 63 63 64 64 64 64 64 65 64 64 63 63 63 63 63 62 62 62 62 63 63 61 60 59 59 59
56 56 56 56 56 57 57 58 58 58 57 58 57 57 57 58 57 58 59 59 59 59 59 59 59 61 63 63 63 63 64 64 63 64 64 63 63 63 63 62 62 63 63 63 63 63 63 63 62 62 62 62 62 62 62 62 62 61 63 62 62 61
56 56 56 56 55 56 56 57 57 57 57 57 58 57 57 57 57 58 58 57 57 57 57 57 58 60 60 62 62 62 62 62 62 62 63 63 63 63 63 62 62 61 61 63 63 63 63 62 62 62 62 62 62 61 62 62 63 63 63 62 63 62
56 56 56 56 55 56 56 56 56 57 56 56 56 55 55 56 56 57 57 56 56 57 57 57 58 59 59 59 60 60 60 59 60 61 61 61 59 60 60 62 61 61 61 63 63 62 62 61 62 62 62 62 62 62 62 63 63 63 62 62 62 61

ECMWFFLT2_sfc_temp_087.txt.gz
Temp
69 69 69 70 70 69 73 74 74 75 75 75 74 74 74 74 74 75 73 72 71 69 67 67 68 69 74 70 73 74 74 74 74 74 74 74 73 73 73 73 72 71 71 72 72 72 72 72 73 72 73 73 72 66 65 65 65 65 64 65 66 65
68 68 69 70 70 71 71 72 69 70 71 73 74 74 72 70 74 69 73 70 68 69 66 65 67 72 68 71 71 74 74 74 74 74 73 73 73 73 73 72 72 72 71 71 72 65 64 69 73 72 73 72 67 64 65 65 65 65 65 64 65 68
68 69 69 70 70 71 70 69 69 70 71 73 73 72 69 70 67 68 69 68 68 67 65 66 66 69 69 72 70 74 74 74 74 74 73 73 73 73 72 72 72 72 71 70 65 62 62 62 63 72 72 67 63 64 64 65 64 64 65 65 64 72
68 69 69 69 69 69 68 68 68 69 69 69 68 69 67 66 66 66 67 68 67 67 67 64 72 74 75 68 68 73 74 74 74 73 74 70 72 72 73 72 72 71 67 65 64 63 63 62 62 63 64 63 63 63 64 64 64 64 64 67 65 73
68 68 69 69 69 68 68 67 67 67 67 67 67 66 65 65 65 66 66 68 66 68 66 65 65 66 65 65 65 64 65 66 65 65 69 63 63 64 66 63 63 65 64 65 65 63 63 63 64 64 65 64 65 64 64 65 64 64 64 64 66 73
68 67 67 67 68 70 69 66 66 67 67 67 67 66 65 65 66 67 66 67 69 67 66 65 65 65 66 65 65 64 64 64 64 64 68 65 63 64 64 64 65 65 65 65 65 65 64 65 64 63 64 65 65 64 64 63 64 64 64 64 67 73
67 67 67 67 67 67 66 66 67 67 67 65 65 65 64 64 65 66 67 67 67 65 65 65 65 65 65 65 65 64 63 63 62 63 66 65 64 64 64 65 65 65 64 65 66 66 65 66 65 65 64 66 65 65 64 63 64 64 64 64 68 74
67 67 66 67 66 66 66 66 68 70 67 68 67 65 64 64 65 66 67 67 68 65 65 64 65 65 65 64 65 65 64 63 63 63 64 64 63 62 64 65 64 64 65 66 66 67 66 67 66 65 65 64 66 65 64 64 64 64 63 64 66 72
67 66 66 66 66 65 65 66 67 66 66 70 65 65 65 65 65 66 67 67 67 66 65 64 64 64 64 64 64 64 63 64 63 64 63 63 63 62 62 63 64 65 64 65 65 66 66 67 66 66 65 64 65 65 64 64 63 64 63 63 65 68
66 66 66 66 65 65 64 65 67 67 67 69 66 66 65 65 65 65 65 66 67 65 65 65 64 64 64 65 64 64 64 64 64 63 63 63 63 62 62 62 63 64 66 66 66 67 66 67 67 66 65 65 65 65 64 64 64 64 64 64 64 67
66 68 66 66 65 65 66 65 67 67 67 67 66 66 66 65 65 65 65 66 66 66 66 65 65 65 64 64 64 64 64 65 64 63 63 64 62 63 62 63 64 64 65 65 65 66 66 67 66 65 64 66 65 64 64 64 64 64 64 65 64 65
66 67 66 66 66 66 66 66 67 66 66 66 67 66 66 67 67 66 66 65 65 65 66 65 64 65 66 65 64 64 64 64 65 64 64 63 62 62 63 63 63 64 64 65 65 65 66 65 66 65 63 64 64 64 64 64 64 64 65 64 64 65
68 67 67 67 67 66 66 67 66 66 66 67 67 67 66 66 67 66 66 66 65 65 65 64 64 64 66 66 66 64 65 65 65 65 63 64 64 62 63 63 64 64 63 64 64 64 66 63 63 63 63 64 64 64 64 64 64 64 64 65 65 65
68 67 67 67 67 66 66 66 65 65 67 67 66 67 67 65 66 66 65 65 66 66 65 65 65 65 65 65 65 65 64 64 65 64 64 63 63 63 63 62 64 63 66 64 64 64 63 65 63 62 62 63 63 63 63 64 63 64 64 64 65 64
68 66 68 67 67 66 66 66 66 66 67 66 66 65 66 65 66 66 65 65 65 66 67 66 66 65 64 64 65 65 65 65 65 64 63 63 63 63 62 63 62 64 63 62 62 64 64 63 64 65 63 62 62 63 63 63 63 63 63 63 63 64
67 66 67 67 66 66 66 65 66 68 65 65 65 64 65 65 66 66 65 65 65 65 66 65 65 65 64 64 64 65 65 65 64 63 63 63 64 63 62 63 63 62 62 63 63 63 61 63 63 63 62 62 63 64 63 63 63 63 64 63 63 63
67 66 66 66 66 65 65 66 66 67 66 65 65 65 65 65 65 65 65 65 64 65 65 65 65 65 65 65 64 65 64 64 64 64 63 62 62 63 63 64 63 63 63 62 62 63 63 61 62 62 61 62 63 64 63 63 63 63 63 62 62 63
66 66 66 66 66 65 65 66 66 65 68 66 65 65 65 65 65 65 65 65 64 64 65 65 65 65 65 65 64 63 63 64 65 65 64 62 63 62 62 62 63 63 63 63 62 62 62 62 62 62 60 61 62 62 62 63 63 65 63 62 62 62
67 66 65 66 66 65 65 65 64 64 65 65 65 65 65 65 65 65 64 65 65 65 65 65 65 65 65 65 65 64 64 64 64 65 65 64 63 62 62 62 62 63 62 63 63 62 63 62 62 61 61 61 62 62 63 63 63 63 63 62 63 64
66 66 66 65 65 64 64 63 63 64 64 64 64 65 64 65 65 65 65 65 64 63 64 64 64 64 65 65 65 64 63 63 63 64 65 65 64 63 63 63 62 62 62 63 63 63 61 61 60 60 60 60 61 61 62 63 63 63 63 63 63 63
67 67 65 64 64 63 63 63 63 62 63 63 64 64 64 64 64 64 65 64 65 64 64 63 65 63 63 65 63 62 61 62 62 63 64 65 65 65 65 64 64 63 63 62 62 62 62 62 61 60 59 60 60 61 62 63 63 62 63 63 63 63
66 66 66 65 65 65 63 63 62 62 63 63 64 64 64 64 65 65 65 65 65 64 64 63 64 64 64 63 63 64 65 65 65 65 65 65 65 65 65 64 64 63 63 62 62 63 62 61 59 59 58 57 57 60 61 62 62 62 62 63 63 63
64 64 63 65 64 63 63 64 63 63 63 64 65 65 64 64 65 64 64 64 65 65 64 63 64 64 64 63 64 65 65 65 65 65 64 64 65 65 65 65 64 62 62 63 63 63 63 63 61 59 59 58 57 56 57 59 61 62 63 62 62 63
64 65 64 65 65 64 66 65 65 64 65 65 64 66 66 65 65 64 65 65 65 65 65 65 65 65 64 63 63 63 64 64 64 64 63 63 64 64 64 64 64 63 63 61 62 62 64 63 62 59 56 56 56 55 55 57 58 61 62 62 62 62
64 64 64 64 63 64 65 65 65 65 65 63 64 65 65 65 64 65 66 65 65 65 65 64 65 65 65 64 64 64 63 63 62 62 62 62 63 63 64 64 64 63 63 62 61 62 62 63 63 63 60 57 55 55 56 57 55 57 59 60 61 62
64 63 63 63 63 64 64 63 63 62 61 61 61 62 62 62 63 63 63 64 65 65 65 64 64 64 64 64 64 64 63 63 62 62 62 62 63 63 63 62 63 63 63 63 62 61 60 62 63 63 63 62 62 58 56 56 58 55 58 61 61 62
64 63 64 64 65 65 64 64 64 63 62 61 61 62 64 65 64 64 65 64 65 65 65 64 64 64 64 64 64 63 62 62 62 62 63 62 63 63 63 64 64 63 63 63 62 60 60 61 62 62 63 63 63 62 61 58 56 57 55 58 61 60
63 64 64 65 65 65 63 62 63 63 63 62 62 62 63 64 65 65 64 64 65 65 65 65 64 64 65 65 65 64 64 64 64 64 64 64 63 63 64 64 65 65 64 63 62 61 61 61 60 60 63 62 62 62 61 61 61 58 56 55 57 61
62 63 63 64 64 64 64 63 63 63 62 62 63 63 64 64 63 64 63 63 64 64 65 65 65 65 65 65 66 65 65 64 64 63 64 63 63 63 63 63 63 63 63 63 63 62 61 61 61 60 61 61 61 61 60 61 61 59 57 55 56 58
61 61 62 62 63 63 63 63 62 62 61 61 62 62 62 62 62 62 62 62 61 63 64 64 64 64 64 65 65 65 64 64 63 63 64 63 63 64 64 64 64 64 64 63 63 63 62 62 62 62 61 61 60 60 60 59 59 59 58 58 56 56
59 59 60 60 61 61 61 61 60 60 59 59 60 60 59 59 60 60 60 60 61 61 62 62 62 62 63 63 64 65 64 64 64 64 63 63 63 63 63 63 64 64 64 63 63 63 62 62 62 62 62 61 61 60 59 58 58 59 58 57 56 56
58 57 57 58 59 59 59 58 58 57 57 57 57 57 56 56 58 58 58 57 58 60 60 61 61 60 60 62 62 62 63 63 62 62 62 63 63 63 63 64 64 64 64 64 64 63 63 63 63 63 62 62 62 62 61 60 61 60 59 58 58 57
55 55 55 56 56 56 56 55 55 55 55 56 55 55 56 55 55 55 55 55 55 55 57 57 58 58 59 60 60 60 60 60 60 61 62 61 60 60 60 61 63 63 63 63 63 63 63 63 63 62 62 63 62 62 61 62 61 60 60 60 59 57
54 54 55 55 55 55 55 55 55 55 55 55 54 55 54 54 55 55 55 54 54 54 54 54 55 56 57 59 58 58 58 58 59 60 58 56 56 56 56 57 60 60 61 62 63 62 62 63 63 63 63 62 62 62 62 62 62 61 60 59 58 58
54 54 54 53 54 54 54 54 55 55 54 55 54 54 54 54 54 54 54 53 53 53 53 53 53 55 56 55 55 56 56 56 57 57 55 55 54 54 55 55 56 56 57 58 58 60 61 62 62 62 63 62 62 62 62 62 62 61 61 60 60 59
53 53 53 54 53 53 53 54 54 53 53 54 55 54 53 54 53 53 53 52 52 52 52 52 53 53 53 53 53 53 53 53 55 55 54 54 53 52 53 53 53 54 54 56 55 56 59 61 62 62 62 62 62 62 62 62 62 62 61 61 60 60
54 53 53 53 52 53 53 53 53 53 53 53 52 52 51 52 52 53 52 52 51 52 52 52 52 53 52 52 52 52 51 52 53 53 52 53 52 51 51 51 50 51 51 53 53 54 56 58 60 62 62 62 62 62 62 62 62 62 62 62 61 61

ECMWFFLT2_sfc_temp_093.txt.gz
Temp
76 76 76 77 77 77 77 75 75 75 75 75 75 75 75 75 75 75 75 72 73 76 76 76 77 78 75 77 73 74 74 74 74 74 73 74 73 73 73 72 72 71 72 72 72 72 73 73 73 73 73 73 73 78 79 79 79 79 80 80 79 81
75 76 76 76 76 77 77 77 78 78 78 76 76 76 77 78 77 77 74 75 77 76 76 77 77 75 77 77 77 73 74 74 74 74 73 73 73 72 73 72 72 71 70 70 71 79 77 74 73 73 73 73 77 80 78 79 79 80 80 80 80 78
75 76 76 76 76 77 77 77 77 77 77 76 77 77 77 77 77 76 76 77 75 75 76 76 76 76 76 73 75 72 73 74 73 73 72 72 72 72 71 71 71 70 69 68 78 79 80 80 79 74 74 76 80 79 78 77 77 79 80 80 80 74
75 75 75 75 75 76 76 76 76 76 77 77 76 76 75 75 76 75 74 74 73 75 75 75 74 74 75 78 76 72 70 71 71 72 70 74 72 71 69 69 68 68 71 77 80 80 80 80 81 79 79 79 80 79 78 78 79 80 80 79 82 73
75 75 75 74 74 73 74 73 74 74 75 75 75 74 74 75 74 74 75 75 75 75 75 75 76 76 78 78 78 78 77 77 76 76 72 76 76 76 75 76 75 73 76 77 80 79 79 78 79 79 79 79 79 79 79 78 79 81 80 79 79 72
74 74 74 74 74 73 73 72 72 73 73 74 75 75 74 75 74 74 74 75 76 75 74 75 76 75 76 76 76 78 77 76 75 76 76 76 76 74 75 77 76 76 75 76 77 79 79 78 78 79 80 79 79 79 80 80 80 79 80 79 79 72
73 73 74 74 74 73 72 73 74 73 74 73 75 74 75 74 73 73 74 75 75 76 74 75 75 75 74 75 76 77 77 77 76 76 76 76 75 75 76 76 76 76 76 77 79 79 79 79 78 79 79 80 79 80 79 80 80 80 80 79 78 72
74 72 72 74 74 72 71 73 75 74 75 74 75 74 74 74 74 74 74 75 75 75 75 75 75 75 75 75 75 76 77 77 77 77 78 77 76 77 77 77 77 78 79 80 80 79 79 79 79 78 79 79 79 78 79 80 80 79 80 79 80 75
73 72 72 73 73 72 72 74 75 75 75 75 75 75 75 74 74 75 74 75 75 74 75 75 75 75 76 75 76 76 77 77 77 77 77 78 77 76 77 77 77 79 79 80 81 79 80 79 79 79 79 80 79 79 78 79 79 79 79 79 79 78
72 71 72 73 72 73 73 75 75 75 75 76 75 75 74 76 76 76 74 74 74 73 73 75 75 75 75 74 74 74 74 75 76 76 76 76 77 77 77 78 78 79 81 81 81 81 80 81 81 80 80 80 79 79 79 79 79 79 80 79 78 79
71 72 73 73 72 73 74 75 75 75 75 75 75 75 75 74 74 76 73 74 74 74 73 74 74 74 73 73 73 72 72 74 74 74 74 75 76 77 77 77 77 78 79 80 79 81 81 80 81 82 80 81 79 79 79 79 79 79 79 79 79 78
72 73 72 73 73 73 74 75 74 74 74 73 73 74 74 73 72 72 72 72 73 73 73 72 72 72 73 73 73 72 71 71 72 72 72 73 74 75 77 78 77 77 76 77 77 78 79 79 80 82 82 79 79 79 80 79 79 78 78 79 79 78
71 72 72 72 73 73 73 73 73 73 73 72 74 74 74 73 73 72 71 72 72 73 72 71 71 71 72 72 72 72 72 72 72 71 72 74 75 74 75 76 77 77 76 77 76 77 79 79 79 80 80 80 80 80 80 79 79 78 77 78 78 78
72 71 72 72 72 72 71 72 73 74 74 73 73 74 72 72 72 72 73 73 73 73 72 72 72 71 72 72 72 72 72 72 73 73 74 74 74 75 75 75 76 77 76 75 76 77 76 77 79 80 78 78 78 78 79 79 79 78 77 77 78 77
71 71 71 70 70 71 71 72 73 73 74 74 73 72 71 71 71 72 73 72 72 72 73 73 73 71 70 70 71 71 71 72 73 73 72 72 73 73 73 73 75 75 75 75 76 76 76 75 76 75 75 76 76 77 77 77 78 78 78 77 77 77
71 70 69 69 70 71 71 72 73 73 73 73 72 71 70 71 71 71 72 72 73 73 73 73 73 71 70 70 70 70 71 71 72 72 71 71 70 71 71 72 73 72 71 73 74 74 75 74 74 74 75 75 75 75 76 76 76 77 78 78 77 76
69 69 68 70 71 71 72 72 73 74 74 74 72 69 71 71 70 71 71 71 72 73 74 73 73 72 70 70 70 70 71 72 73 72 71 70 70 70 71 70 71 72 72 70 72 72 72 73 73 73 74 73 73 74 74 75 76 76 76 75 75 76
70 70 70 71 73 74 74 74 74 74 74 73 71 69 70 70 69 69 71 71 73 73 73 73 74 74 73 73 73 73 74 74 74 72 71 71 71 72 71 69 70 72 72 71 69 69 69 71 72 72 72 72 72 72 73 74 75 74 75 75 75 75
70 72 72 72 73 74 73 73 73 73 73 72 72 70 70 70 70 71 70 71 71 71 72 73 73 73 73 73 73 74 74 73 73 72 72 71 72 72 71 71 70 71 71 70 69 69 68 68 69 70 70 71 71 71 73 74 74 75 75 74 73 74
71 72 73 73 74 75 75 74 73 74 73 70 70 68 69 69 70 70 70 69 69 69 70 71 73 73 72 71 71 72 72 72 71 71 71 71 70 70 69 69 70 69 69 70 71 70 70 69 69 68 68 70 71 71 71 72 72 73 74 74 74 74
71 74 73 73 75 75 74 73 72 71 69 69 68 67 67 67 68 68 69 69 68 68 69 70 70 70 70 70 71 71 70 71 71 70 69 68 68 69 69 69 68 68 67 68 69 71 70 69 67 66 70 70 71 73 72 71 71 72 72 74 73 73
72 72 73 73 73 73 73 74 72 70 69 69 69 67 66 67 67 68 69 69 69 70 70 70 70 70 70 70 69 69 69 69 69 69 69 69 70 69 70 69 68 67 69 67 68 70 71 69 67 65 63 66 69 72 72 71 70 71 71 73 72 71
71 72 72 73 74 71 71 71 71 69 68 67 68 68 68 68 68 68 68 69 70 70 70 70 70 71 70 71 71 70 70 70 70 69 68 68 69 68 68 67 67 66 67 69 69 71 70 69 64 66 67 63 63 65 70 69 70 70 71 72 72 70
69 71 72 71 70 71 71 71 71 70 70 69 67 68 68 69 69 69 69 70 70 69 69 69 70 71 71 71 71 70 70 70 69 69 68 68 68 68 67 67 67 67 67 66 68 69 71 70 68 63 60 62 63 62 61 68 69 73 74 73 72 70
70 70 70 71 71 72 72 71 71 70 69 67 67 67 67 67 68 69 69 69 68 70 69 69 69 70 70 70 70 70 70 70 69 69 69 68 68 68 68 68 68 67 66 64 65 67 70 70 69 68 62 60 61 62 63 66 67 69 72 72 72 73
69 69 70 70 71 73 72 72 71 69 67 67 66 65 64 63 64 65 67 68 69 69 68 68 69 68 68 68 67 68 68 68 66 67 67 66 66 66 68 67 68 67 67 68 66 66 67 69 69 68 68 66 65 59 59 64 62 61 71 73 73 74
67 68 68 69 71 72 70 70 69 68 68 66 64 64 65 66 65 67 68 67 67 66 67 66 67 68 67 67 66 66 67 67 65 64 64 63 62 62 64 67 68 68 67 67 67 66 67 68 69 68 68 68 68 67 66 62 59 61 60 68 71 71
66 66 67 68 69 70 69 68 67 67 66 65 64 63 64 65 66 67 67 66 67 66 65 65 64 64 65 65 64 63 65 64 63 63 62 60 61 62 63 64 65 65 66 67 67 64 65 67 64 66 68 67 67 67 68 68 66 62 60 58 64 71
64 65 65 66 66 67 67 67 67 67 65 65 66 66 65 65 65 65 63 64 63 64 63 63 63 62 63 63 63 62 62 62 63 62 61 60 60 61 60 61 62 61 61 62 63 64 64 64 65 64 64 66 66 66 67 68 68 67 61 59 61 64
63 64 64 64 65 64 64 65 64 64 63 64 65 64 64 63 63 63 62 61 62 62 62 62 62 62 62 64 62 62 62 61 61 61 60 59 60 60 59 60 60 60 61 61 61 60 60 62 64 65 64 65 64 65 66 66 66 64 63 63 58 61
61 62 63 63 63 62 63 63 62 61 61 61 61 61 61 60 61 61 60 60 60 61 61 61 62 61 60 62 61 62 60 60 60 59 59 59 59 59 59 59 60 60 59 59 59 59 59 61 62 62 63 64 64 62 61 61 63 64 62 60 60 61
60 61 62 62 62 61 62 61 61 60 59 59 60 59 58 58 59 59 58 58 60 60 60 60 60 59 58 59 60 59 59 59 58 58 57 58 57 57 58 59 59 59 59 59 59 58 58 58 59 59 60 62 62 63 64 63 63 62 61 61 60 59
59 60 60 61 60 60 60 60 60 60 59 59 59 59 58 57 58 58 58 57 57 58 58 57 57 57 57 57 58 57 56 56 56 57 57 57 57 57 57 58 58 57 57 57 57 56 56 56 56 57 58 60 60 62 62 63 64 63 64 63 62 59
59 60 60 60 60 59 59 59 59 59 59 59 58 58 57 57 57 57 58 57 56 56 56 55 55 55 56 58 58 57 56 56 56 56 56 56 56 56 56 57 57 56 55 55 55 54 54 54 54 56 56 56 58 59 61 63 64 64 63 62 61 61
59 59 59 59 59 58 59 59 59 59 59 59 58 58 57 57 57 56 57 56 55 56 55 55 55 56 57 57 56 56 56 55 55 55 55 55 55 56 55 56 56 55 56 55 54 54 53 53 52 52 52 54 55 57 59 61 61 62 63 62 61 61
59 59 59 59 58 58 58 58 58 57 57 58 58 58 58 58 58 57 56 56 55 54 55 55 56 56 56 56 55 55 56 55 55 55 55 55 55 55 54 54 55 55 54 55 54 54 53 53 53 52 53 54 54 55 57 58 60 60 59 60 60 62
58 59 58 58 58 58 58 57 57 57 57 57 57 56 56 56 56 56 56 56 55 55 55 55 55 56 55 56 56 55 55 54 54 54 54 54 54 54 54 54 54 54 53 54 54 54 54 54 54 54 53 53 53 54 55 56 57 57 58 59 60 60

ECMWFFLT2_sfc_temp_096.txt.gz
Temp
81 80 81 81 80 81 79 76 76 76 75 75 75 76 75 75 75 74 76 75 75 81 82 81 78 81 76 80 74 74 75 75 74 74 74 74 73 73 73 73 73 72 73 73 74 73 74 73 73 73 73 73 74 78 86 85 86 86 88 88 85 87
80 80 80 80 81 81 80 80 81 81 80 79 77 77 78 80 79 80 76 79 82 83 84 83 82 80 83 78 77 73 74 74 74 74 73 73 73 73 73 72 72 72 71 73 72 82 78 74 73 73 73 73 77 87 84 86 85 88 87 88 87 79
79 80 80 81 81 82 82 83 83 83 82 79 81 81 81 82 83 83 83 84 82 83 83 83 82 81 82 75 77 74 73 74 73 73 73 72 73 71 71 72 70 71 71 70 79 86 85 84 81 74 74 77 83 86 85 84 85 86 87 86 88 73
80 81 82 82 82 83 83 83 84 83 82 82 82 82 82 82 82 82 82 81 81 82 82 82 78 76 77 82 78 73 73 73 72 72 71 74 71 72 71 69 70 70 74 81 87 87 88 86 85 82 83 84 86 86 85 85 87 87 86 86 89 72
81 82 81 82 82 83 82 83 83 82 83 83 83 82 82 82 81 81 81 80 81 81 81 82 81 81 82 83 84 82 80 83 83 83 76 84 84 84 78 84 81 79 85 86 88 86 86 86 85 85 85 85 85 85 85 85 86 87 86 86 83 72
81 81 82 82 82 81 81 82 82 82 82 82 82 82 83 82 82 81 81 81 80 80 81 81 81 82 82 82 82 83 82 83 84 84 83 85 85 83 85 85 85 85 85 86 85 86 86 85 85 85 86 85 85 85 86 87 88 86 86 86 82 72
80 81 81 82 81 82 82 82 82 82 82 81 83 82 83 82 81 81 81 81 80 81 82 83 82 81 81 82 82 83 82 82 82 83 84 85 83 83 85 85 85 84 85 85 86 86 86 86 85 87 86 87 86 86 85 87 88 87 86 86 82 72
80 81 80 81 81 82 81 81 81 81 82 81 82 82 82 82 81 81 80 81 81 82 82 82 82 81 82 82 82 81 82 83 83 84 84 85 84 86 85 86 84 86 86 86 87 86 87 87 85 85 85 85 86 85 85 87 87 86 87 85 86 75
80 80 80 81 81 81 80 81 81 81 81 80 82 82 82 81 82 83 82 81 81 79 81 81 81 81 83 80 80 81 82 83 83 84 84 84 84 84 84 85 85 86 86 86 87 85 86 86 85 85 85 86 86 85 85 85 86 87 87 87 86 83
79 80 80 80 80 80 80 80 81 81 81 81 82 81 81 82 83 83 82 80 80 80 80 81 81 82 81 80 81 81 81 82 82 83 83 82 84 84 84 85 85 86 89 87 87 87 86 86 87 86 86 86 85 85 85 85 86 87 88 87 85 85
80 80 81 80 80 79 81 80 81 82 82 81 81 81 81 80 81 80 80 79 80 80 80 80 81 80 80 80 80 79 80 81 82 82 81 82 83 82 83 84 84 85 85 87 87 88 88 86 87 89 87 88 86 86 86 85 86 86 86 86 86 85
79 80 80 80 79 79 80 81 82 81 81 81 80 81 81 80 80 80 80 80 79 79 79 78 78 79 79 80 80 79 79 79 80 81 81 81 82 82 83 84 84 83 82 83 84 85 86 85 86 88 89 87 86 85 86 86 86 85 85 85 86 86
79 78 80 80 81 80 80 82 81 81 82 81 81 81 81 81 80 80 79 79 79 78 78 77 77 78 78 79 78 77 79 78 79 80 81 81 81 81 82 82 82 83 83 83 82 83 86 85 84 85 86 87 87 87 88 87 86 85 85 85 85 86
78 78 78 79 79 80 80 81 82 82 81 81 81 80 80 79 79 80 80 79 79 79 79 79 79 77 78 77 77 77 78 78 79 79 80 80 81 81 82 82 83 84 82 82 82 82 83 83 85 87 86 86 85 84 85 86 86 86 85 84 85 85
77 77 77 78 78 78 79 82 82 81 81 80 80 79 79 79 79 80 80 79 79 79 79 79 78 77 76 77 78 77 78 79 78 79 80 80 80 80 80 80 82 81 80 81 82 82 82 81 81 81 82 82 83 84 84 83 84 84 85 84 84 84
76 75 76 77 78 78 79 80 81 80 80 80 80 78 77 78 79 80 80 79 79 79 78 78 78 78 76 78 78 77 77 77 78 78 78 78 78 77 77 78 79 79 77 79 79 79 81 80 80 80 80 81 81 81 82 83 82 83 84 84 84 83
74 75 75 76 78 78 79 80 79 79 80 80 79 78 78 79 79 80 80 80 79 78 79 78 78 78 76 76 77 78 78 78 79 79 77 77 79 77 76 76 77 78 77 76 77 78 77 78 78 78 79 79 79 79 79 81 81 82 82 81 81 82
74 76 77 78 78 79 80 80 80 80 79 80 79 78 78 79 79 79 79 79 79 78 77 78 79 79 78 78 78 78 79 79 80 79 79 79 79 79 78 77 76 77 77 75 75 75 75 76 76 76 77 77 77 78 78 79 80 80 81 79 79 79
76 77 78 79 80 79 79 80 80 79 78 78 78 78 79 78 78 78 78 77 78 78 78 79 79 79 79 80 80 79 78 77 77 77 78 79 78 78 77 77 76 76 77 78 76 75 75 76 76 76 76 76 76 76 77 78 79 80 79 78 78 78
77 78 79 80 81 81 81 80 78 78 77 76 76 77 77 76 77 76 76 76 77 76 78 78 79 78 78 77 78 77 77 77 77 77 76 76 76 77 74 73 74 74 74 76 77 77 77 76 76 76 76 77 77 78 77 78 77 77 78 79 79 80
77 79 80 80 80 80 79 78 78 76 74 74 74 72 73 74 74 75 76 76 76 76 76 76 77 77 77 76 76 77 75 75 77 77 75 74 75 74 74 73 74 74 73 73 76 78 77 77 75 75 77 77 77 79 79 78 77 78 78 79 80 80
77 78 78 78 78 78 78 79 77 75 73 74 73 71 70 71 71 73 74 75 75 76 75 75 75 75 75 74 74 74 74 74 75 75 74 74 74 73 73 74 73 72 76 74 74 77 77 75 74 73 71 73 76 79 79 79 78 78 78 79 79 79
77 78 78 78 79 77 77 77 77 76 74 72 74 74 74 72 72 73 73 74 75 75 75 75 74 75 74 75 74 73 73 74 74 74 74 73 73 73 73 73 72 71 71 75 75 78 77 76 72 73 74 72 72 71 77 77 78 77 78 79 79 78
77 77 77 78 78 77 76 75 76 75 73 73 71 72 72 72 72 72 72 74 75 74 74 74 75 76 75 75 75 73 73 74 74 73 72 72 71 72 72 71 71 71 71 70 75 75 77 76 74 72 68 69 70 70 68 72 73 77 80 80 78 77
76 76 77 76 77 76 75 74 74 73 72 71 71 70 70 70 71 72 72 72 72 74 74 72 72 73 73 71 71 71 71 72 72 72 73 72 71 70 71 72 72 70 70 69 69 72 75 76 75 74 70 68 69 69 69 71 72 73 79 78 79 81
75 76 75 76 76 75 75 75 72 71 69 69 68 68 67 67 69 69 70 71 72 73 72 71 72 71 70 69 68 68 69 70 70 71 71 70 69 68 67 69 70 70 69 70 69 70 71 75 75 75 74 72 69 66 65 69 67 66 76 78 78 79
75 74 75 75 76 77 76 75 74 73 73 71 69 69 70 70 69 70 70 69 70 69 71 69 69 72 71 69 68 68 69 70 70 70 70 69 66 64 66 68 69 69 69 70 69 65 66 69 73 74 74 72 71 71 70 66 62 66 65 74 77 77
74 74 74 75 76 76 75 74 73 72 71 71 70 68 69 69 70 70 69 69 70 70 71 72 72 72 70 69 68 69 69 68 68 69 70 69 66 66 68 69 69 69 70 69 68 66 65 67 66 67 70 70 71 72 72 70 69 64 65 63 69 78
70 71 72 73 75 74 74 73 72 72 70 70 70 70 71 71 69 69 68 68 68 69 69 68 69 69 68 69 69 68 68 67 67 68 69 70 69 69 68 67 67 67 67 67 68 67 66 66 66 66 66 67 69 69 70 71 72 70 66 63 66 69
69 70 71 71 73 73 73 73 71 71 70 69 70 70 70 69 69 69 67 67 67 68 68 67 66 66 67 68 67 68 67 66 66 66 67 67 67 67 66 67 67 66 66 65 68 67 65 66 67 67 66 66 65 65 66 67 68 68 69 69 63 67
67 68 69 70 70 70 72 72 70 69 68 68 68 68 68 68 69 68 67 67 67 66 66 66 65 64 65 66 65 66 65 65 66 65 65 65 65 66 66 66 66 66 65 64 65 64 64 64 64 64 64 66 65 64 62 62 63 64 63 62 65 67
67 67 68 69 69 69 69 69 69 68 68 68 68 68 67 66 68 67 67 67 67 67 65 64 63 63 63 65 65 64 65 65 64 64 64 65 65 65 66 67 66 65 64 63 62 61 61 60 59 60 61 62 62 64 65 65 67 65 63 62 62 64
66 67 67 68 67 67 67 67 67 67 66 66 66 66 66 65 66 65 66 66 65 64 64 62 62 62 62 63 64 63 63 63 63 63 63 64 64 64 64 66 65 64 63 62 62 60 60 58 58 58 58 61 62 63 63 65 65 64 65 64 63 61
65 67 67 67 67 66 66 66 66 66 66 66 65 64 64 64 63 64 65 64 63 63 62 61 61 61 63 63 63 63 63 62 63 63 63 63 63 64 63 65 64 62 62 62 62 62 61 60 59 59 60 59 60 61 61 62 62 62 61 61 61 62
66 67 68 66 66 65 67 67 66 66 66 66 65 64 64 64 63 63 63 62 63 63 62 62 62 62 63 62 62 63 62 62 62 62 63 62 62 63 62 64 64 62 62 62 62 62 62 61 59 59 59 59 59 61 60 60 60 60 61 60 59 61
67 66 66 66 66 66 66 67 65 64 63 64 64 64 64 63 63 63 63 63 62 62 63 63 62 62 62 62 62 62 63 62 62 62 62 62 62 63 62 62 62 62 61 62 61 61 62 61 60 59 60 60 60 60 61 61 61 60 60 60 60 60
67 67 66 65 64 64 65 64 64 64 64 63 62 61 61 60 62 64 63 62 61 61 62 62 62 62 62 62 62 62 62 62 62 62 62 62 62 62 62 62 61 61 60 61 62 62 62 61 61 61 61 60 62 63 63 62 62 61 60 60 60 60

ECMWFFLT2_sfc_temp_102.txt.gz
Temp
79 79 79 78 77 77 76 76 76 75 76 76 75 75 75 75 75 76 76 76 75 76 76 75 75 76 75 75 74 74 74 74 74 75 74 74 74 74 74 74 74 74 74 75 74 74 74 74 74 74 74 74 74 73 74 76 79 81 82 81 77 75
78 79 79 78 78 78 77 77 77 76 76 76 75 76 75 76 78 76 76 75 76 77 77 77 77 78 77 75 75 75 75 75 74 74 74 74 74 74 74 74 74 74 74 74 74 73 74 74 73 74 74 74 73 73 76 77 80 81 84 81 76 74
78 79 78 78 78 78 77 78 77 77 77 77 77 77 77 78 79 78 78 78 77 78 80 79 79 80 79 76 75 74 75 74 74 74 74 74 74 74 74 74 74 75 74 74 73 74 77 75 73 74 74 73 73 74 77 79 79 79 81 80 78 74
78 79 79 78 78 78 78 78 78 79 78 77 77 78 79 79 79 80 80 79 77 79 79 77 81 81 79 77 75 74 75 74 74 74 74 74 74 74 74 74 74 74 74 75 75 77 80 80 76 75 73 74 75 78 79 79 79 80 81 85 78 74
80 80 80 79 78 79 78 79 80 80 79 79 78 79 79 79 80 80 79 78 79 77 77 76 75 75 75 75 76 75 74 74 74 74 74 74 74 76 73 75 74 73 73 76 78 78 80 79 78 77 76 76 78 80 81 80 79 80 80 79 75 74
80 80 80 80 79 80 80 79 79 79 80 79 79 79 79 79 79 79 78 76 76 75 75 75 74 74 73 72 73 73 73 75 76 76 76 74 76 76 74 77 77 76 75 77 78 80 81 79 79 77 78 78 79 80 80 79 80 80 81 77 74 74
79 80 81 81 80 80 80 80 79 80 80 79 80 80 80 79 78 77 75 76 75 75 74 73 74 73 72 72 72 72 73 73 73 72 73 74 74 76 78 78 77 77 77 79 82 82 83 82 79 81 80 82 80 81 79 80 80 80 79 79 75 74
80 80 80 81 80 81 80 79 79 80 80 79 80 79 79 79 77 75 75 75 76 74 73 74 74 73 71 73 72 73 73 73 73 71 71 72 72 74 76 78 79 82 82 82 84 83 82 82 81 79 79 79 80 78 78 79 79 80 80 80 78 74
80 80 80 80 80 81 80 80 79 79 79 80 80 79 79 77 76 74 75 76 76 74 73 74 75 74 73 72 73 72 72 72 73 71 71 72 73 73 75 74 75 77 79 80 79 77 80 82 79 80 79 80 78 77 77 78 78 80 80 77 79 75
80 80 79 79 80 79 79 79 80 79 79 80 78 78 78 77 77 77 75 76 76 76 74 75 74 74 74 71 72 72 71 70 72 72 71 72 72 74 74 76 77 78 80 79 76 75 76 79 82 79 79 78 78 77 77 77 79 79 78 78 75 74
81 80 80 81 80 79 80 80 80 80 80 78 79 79 77 76 76 75 75 75 76 77 75 75 75 75 71 71 71 71 70 71 72 72 72 72 74 74 73 73 74 74 76 78 77 78 79 78 79 80 77 78 77 76 76 78 76 77 78 77 69 74
80 79 79 81 79 79 79 79 79 78 78 78 78 76 77 76 76 76 77 75 76 76 76 75 76 74 74 71 70 71 71 72 71 72 71 71 72 71 72 74 77 77 75 75 75 76 76 76 77 79 81 78 77 76 77 77 78 77 75 76 72 71
80 80 80 79 77 74 76 77 76 77 77 78 77 78 77 76 75 77 77 75 76 77 74 74 73 75 78 74 74 70 70 70 72 71 70 73 74 73 74 74 76 76 75 74 73 74 78 76 76 77 78 78 78 78 77 76 76 74 75 76 75 71
78 77 72 70 71 69 71 72 74 74 76 76 77 76 77 76 77 76 76 77 77 77 77 77 76 76 77 76 76 77 75 72 74 72 71 73 73 70 73 74 71 76 76 74 74 75 73 74 75 76 76 77 76 76 75 77 76 76 75 76 73 72
66 67 69 68 69 69 69 69 71 73 76 77 77 77 76 77 77 77 77 76 77 77 78 78 78 76 76 76 76 75 75 74 75 72 71 73 74 74 73 75 75 75 74 74 75 75 76 74 74 75 75 75 75 76 75 74 75 75 76 75 75 72
67 67 67 68 68 69 69 69 69 70 71 72 76 77 75 76 77 77 77 77 77 77 77 78 77 77 73 76 75 73 74 75 75 75 74 74 74 73 73 73 74 74 71 73 74 74 75 74 74 74 75 74 74 74 74 75 75 76 77 75 73 74
68 66 68 69 69 69 69 69 68 69 70 69 71 71 73 77 77 77 77 76 76 77 78 77 77 76 74 74 74 74 74 75 74 74 73 74 73 73 72 73 73 73 73 72 73 74 73 73 73 74 74 73 74 74 73 74 74 75 76 75 74 74
68 68 69 69 68 69 69 70 69 69 68 68 69 70 72 75 75 75 76 76 77 76 76 76 76 75 74 75 75 75 75 75 75 73 74 74 72 72 73 73 71 72 73 72 71 72 72 73 73 73 73 72 73 73 73 74 74 74 74 73 74 73
68 70 70 70 69 70 69 68 66 67 68 69 69 69 73 75 76 76 76 77 77 76 76 77 76 76 75 75 75 75 75 75 75 74 73 73 73 73 72 72 71 71 73 73 72 72 72 72 73 72 73 73 73 73 74 74 74 74 73 73 74 75
70 70 71 70 69 68 68 66 66 67 67 67 67 70 74 75 76 76 77 76 76 75 76 75 76 75 74 74 74 73 73 74 74 74 72 71 71 71 70 70 70 71 71 72 73 73 73 72 71 71 71 72 73 73 73 74 73 73 73 74 73 74
70 70 70 68 67 67 66 65 65 66 66 67 68 70 73 74 75 75 76 76 76 75 76 75 75 73 72 72 73 72 72 72 73 72 71 70 71 70 70 70 70 70 70 69 70 73 72 71 69 68 70 70 71 73 74 73 73 73 74 73 74 73
69 70 69 69 68 67 67 66 65 64 65 66 67 70 72 73 73 74 74 74 74 74 74 73 73 72 72 71 71 71 71 71 70 70 71 71 70 70 69 69 69 67 69 68 68 71 70 70 66 65 64 65 68 70 73 73 73 73 72 72 73 73
69 69 69 69 68 66 67 67 67 66 65 67 70 72 73 73 74 73 73 73 73 72 73 72 72 72 70 70 70 70 70 70 70 69 68 68 68 67 68 68 68 66 65 67 68 70 69 70 65 66 66 65 62 63 68 70 71 72 73 73 73 73
69 69 68 68 68 68 68 68 68 67 67 67 70 72 72 73 72 72 71 72 72 72 72 71 72 71 70 69 69 69 69 69 68 68 67 66 66 66 67 67 67 66 66 63 65 66 69 69 68 65 60 60 61 63 61 62 63 67 71 72 73 73
68 68 68 68 68 68 68 67 68 67 69 71 72 71 70 69 70 71 70 70 71 72 71 70 70 70 70 69 69 68 68 68 67 67 67 66 66 65 67 67 67 65 65 63 62 63 67 68 67 68 64 60 59 59 58 60 63 64 68 69 72 74
68 68 68 68 68 68 67 65 65 64 64 66 66 67 66 66 67 68 69 69 69 70 70 69 69 69 69 69 68 68 67 67 67 66 67 66 66 65 66 66 66 65 64 65 63 63 62 65 66 66 66 65 63 57 57 61 61 57 66 68 69 71
67 67 69 68 67 67 66 65 65 66 64 66 66 67 68 68 68 69 69 68 68 67 69 68 67 69 68 69 68 67 66 66 67 66 67 65 64 64 65 66 66 65 64 64 63 60 60 61 62 64 63 63 63 64 64 61 57 60 56 62 65 66
67 67 68 68 68 68 66 65 65 67 68 68 67 66 67 67 68 68 68 68 67 66 67 68 67 67 68 68 67 66 66 65 65 66 66 64 63 64 65 65 65 65 63 63 62 60 59 59 57 58 60 60 61 63 63 63 63 59 57 55 58 65
67 66 66 67 68 68 68 68 68 69 68 69 69 68 68 68 67 68 67 67 66 66 65 66 67 66 66 67 66 65 65 64 64 64 66 64 64 65 64 63 63 62 61 61 61 61 59 58 58 57 57 58 60 60 60 61 61 60 56 53 55 57
67 67 67 69 70 71 71 70 69 68 67 67 68 68 68 67 66 67 66 66 66 65 65 64 65 65 65 66 65 65 64 64 63 64 64 63 63 64 64 63 63 62 61 60 60 61 59 58 59 59 58 58 57 57 57 57 57 56 56 56 52 53
68 69 70 70 70 69 69 69 69 69 68 67 68 67 66 66 67 66 65 65 64 64 64 63 63 63 64 65 64 65 64 63 63 63 63 63 62 63 63 62 62 62 62 61 60 60 59 59 59 58 58 58 57 57 56 54 55 56 55 53 53 53
66 68 70 70 70 69 69 69 69 69 68 68 69 68 67 66 68 67 65 64 64 63 63 63 63 62 62 63 63 62 63 63 62 62 62 62 62 63 63 63 61 61 61 61 61 60 59 58 58 58 58 58 57 59 58 57 57 57 55 54 54 53
66 68 69 69 69 69 68 68 68 68 68 69 68 69 68 67 67 66 65 64 63 62 62 61 61 61 61 62 62 61 61 61 61 61 62 62 62 63 63 62 61 61 61 60 60 60 58 58 58 57 57 58 59 60 59 59 58 57 57 56 55 53
66 67 68 67 67 68 68 68 68 67 68 68 67 67 66 66 66 65 64 63 62 62 61 60 60 60 61 62 62 62 62 61 62 62 62 62 62 62 62 63 61 60 60 60 60 59 59 59 58 59 59 58 59 59 58 58 58 58 56 55 53 53
67 68 67 67 67 66 66 67 67 68 67 67 66 66 65 65 65 64 64 63 62 62 61 60 60 61 62 62 62 62 62 61 61 61 62 61 62 61 61 62 60 60 60 60 60 59 58 58 58 59 58 58 58 58 57 58 58 57 58 56 55 54
66 66 67 66 66 65 65 66 66 66 66 66 65 65 64 64 64 64 63 62 61 61 61 61 61 61 61 62 61 61 61 61 61 61 61 62 61 61 60 59 59 59 59 62 59 59 58 58 58 58 58 58 58 57 57 58 58 57 57 57 56 55
66 66 66 65 64 65 64 65 65 65 65 64 64 63 63 63 63 63 62 61 61 61 61 61 62 62 61 61 61 61 60 60 60 60 61 61 61 61 60 59 59 58 58 59 59 59 58 58 58 58 58 58 57 57 56 57 58 58 57 57 56 56

ECMWFFLT2_sfc_temp_105.txt.gz
Temp
73 73 73 73 73 73 75 76 75 76 75 75 75 75 75 75 75 75 75 75 75 72 71 71 72 72 75 72 74 74 74 74 74 75 75 74 74 74 74 74 74 74 74 75 74 74 73 73 74 73 73 73 74 70 68 69 71 72 73 72 71 70
72 73 73 73 73 74 74 74 73 73 73 74 75 75 74 72 76 71 75 73 71 73 72 71 71 75 72 72 73 74 74 74 74 74 74 74 74 74 74 74 74 75 74 74 74 69 70 73 74 74 73 74 71 68 69 71 72 72 74 72 70 71
73 73 73 73 73 73 73 72 72 72 73 74 75 74 72 74 71 72 72 72 72 71 72 72 71 74 73 73 72 75 74 74 74 74 74 74 74 74 74 74 74 74 74 74 70 68 69 69 70 74 75 73 68 68 70 71 72 72 72 73 71 74
74 73 73 72 72 72 71 72 72 72 72 72 72 73 72 73 73 73 73 71 71 72 72 71 77 79 77 72 71 74 75 74 74 74 74 73 74 74 74 74 74 74 73 71 68 68 71 71 70 69 70 69 69 70 72 72 73 74 73 76 73 74
75 74 72 72 72 71 71 72 71 71 72 71 72 72 72 72 72 72 71 72 71 72 71 71 70 70 69 69 69 69 70 69 70 69 73 69 69 71 72 70 69 70 67 68 69 70 71 72 72 71 70 70 71 72 73 73 74 74 73 75 72 74
74 74 73 72 72 73 73 71 71 72 72 72 72 72 72 72 71 71 71 72 72 70 70 70 69 68 68 68 68 69 68 69 69 70 71 68 69 69 69 69 70 70 68 68 70 71 72 72 72 71 71 71 72 72 73 73 75 74 73 70 72 74
74 73 73 74 73 73 71 71 72 72 71 71 72 72 72 71 71 71 71 72 71 69 68 68 69 68 67 68 68 67 68 69 68 68 69 68 68 69 69 70 70 70 70 70 72 73 74 75 74 74 72 74 73 74 74 73 73 73 71 70 72 74
74 73 73 73 73 73 71 72 73 74 74 73 73 72 70 71 71 70 72 71 73 69 68 68 68 68 68 68 68 68 68 68 69 68 68 69 68 68 69 69 70 73 74 74 75 76 73 74 73 72 73 72 74 73 71 72 72 74 73 69 71 74
74 73 74 74 73 72 73 74 73 73 72 76 71 72 71 71 70 70 72 72 72 69 69 69 68 68 67 68 68 68 68 67 68 68 68 68 69 69 70 70 70 71 72 73 73 72 73 73 73 74 73 72 72 73 72 72 72 73 74 70 71 71
74 74 74 73 73 72 72 72 72 72 72 73 72 72 71 71 70 71 70 71 73 70 69 69 69 69 68 67 68 68 68 67 67 68 68 68 69 69 69 70 70 71 72 72 72 72 72 73 75 73 72 73 72 72 71 71 73 74 72 70 69 70
75 74 72 71 71 71 70 69 69 70 71 72 71 72 72 71 71 70 70 71 71 72 71 70 70 70 68 68 67 66 66 67 67 67 68 68 69 69 68 69 70 70 70 71 71 71 72 72 72 74 72 74 72 70 71 71 70 72 72 69 67 70
71 69 68 68 68 67 67 68 69 68 68 69 69 68 69 70 71 71 71 70 71 71 71 69 70 69 69 67 67 67 67 67 68 68 68 67 68 69 69 69 71 72 71 71 70 70 71 71 71 72 74 72 71 71 70 70 70 71 71 70 68 68
68 68 68 68 68 67 67 68 68 68 68 69 69 69 69 70 71 71 70 70 71 71 70 69 69 70 70 67 68 67 66 66 67 68 67 67 69 68 68 69 70 71 70 70 70 70 73 71 70 71 72 73 73 73 73 71 71 70 70 69 68 68
68 67 67 67 68 67 67 67 68 68 68 68 68 68 68 68 68 70 70 71 71 72 71 70 71 70 69 69 68 68 67 67 66 67 68 68 68 67 68 68 68 68 71 69 69 70 69 70 69 70 70 71 72 71 71 72 70 71 71 70 69 68
68 66 67 67 68 67 67 67 67 67 67 67 67 67 68 67 68 68 68 70 71 72 71 72 72 70 69 69 69 68 67 66 67 66 66 68 68 67 68 69 68 69 68 67 68 70 70 69 69 70 70 70 71 71 71 71 70 70 71 70 69 69
66 66 66 67 67 67 68 67 68 68 67 67 68 67 67 67 68 68 67 66 69 71 71 72 71 71 70 70 70 68 67 67 68 68 68 68 68 68 68 69 69 69 66 67 68 68 69 68 69 69 69 69 69 70 70 70 71 71 72 71 70 69
66 66 67 67 67 67 67 66 67 67 67 67 67 67 67 68 68 68 68 67 67 70 71 71 71 70 70 70 69 69 69 69 70 69 68 68 68 69 68 69 68 68 68 66 67 68 68 67 68 68 69 68 69 69 69 69 70 70 71 70 70 69
65 67 66 66 66 67 67 67 67 67 68 67 67 67 67 67 67 68 67 66 68 72 71 71 71 71 70 72 70 70 70 71 71 70 69 68 68 68 67 67 66 67 67 67 66 66 66 67 67 68 68 67 68 68 69 69 69 70 69 70 69 68
66 66 66 67 67 66 66 65 66 67 66 66 66 67 68 67 67 67 66 67 72 72 72 70 70 70 69 70 70 69 69 69 69 68 67 67 66 66 66 66 65 65 67 67 66 66 66 65 66 66 66 67 67 68 69 69 69 68 68 68 68 70
66 67 66 66 65 65 65 65 64 65 65 65 65 66 66 66 67 67 70 72 72 71 71 70 70 69 69 70 69 68 67 68 67 67 66 65 64 64 64 64 64 64 64 65 66 66 66 65 64 63 64 65 66 67 68 68 67 68 69 70 69 69
66 66 65 65 64 64 63 63 64 64 63 64 65 65 65 66 69 70 71 71 70 70 69 68 69 69 67 68 69 68 67 66 66 66 64 64 64 64 65 64 63 63 63 62 63 65 66 64 62 62 62 62 64 66 66 67 67 67 68 68 69 69
66 66 65 65 65 64 63 64 63 63 63 64 64 65 66 67 69 69 69 69 69 68 68 67 68 68 68 67 67 67 66 65 64 64 64 64 64 64 63 63 63 61 62 60 61 64 64 63 59 58 57 59 60 63 64 65 66 66 67 67 68 68
65 65 65 66 65 64 64 64 64 64 64 64 66 68 69 69 69 68 68 68 67 67 67 66 66 67 67 66 64 63 63 63 63 64 62 61 62 62 61 61 61 60 58 60 61 64 63 62 57 59 59 57 55 56 59 62 64 66 66 66 67 67
65 65 65 65 65 65 66 65 65 65 66 66 66 68 68 68 68 66 65 66 66 66 66 65 65 65 65 64 63 63 62 62 63 63 61 60 60 60 61 61 60 60 59 57 58 59 62 61 60 58 53 54 55 56 53 56 58 62 63 66 65 66
65 64 65 65 65 66 65 64 65 64 66 67 68 67 66 65 65 65 65 64 64 65 65 64 64 64 64 63 62 62 61 62 61 61 61 60 59 59 60 60 60 59 58 56 55 56 59 60 59 60 57 53 54 54 53 55 57 55 62 62 63 65
65 64 64 65 66 65 65 64 63 63 62 63 63 63 62 63 63 62 62 63 64 64 64 63 63 63 63 63 61 61 61 61 60 60 60 58 59 59 59 60 59 58 57 58 56 55 54 58 58 58 58 58 58 53 52 54 54 50 59 59 60 62
65 64 65 65 65 65 64 63 63 63 63 63 63 63 65 66 65 64 63 62 62 62 63 62 62 62 61 61 61 60 60 60 60 59 61 58 58 58 59 60 60 58 57 57 56 53 53 53 54 56 57 57 57 58 57 54 49 51 49 54 56 58
64 64 64 64 64 64 64 64 64 64 64 63 63 62 63 64 65 65 63 62 62 61 62 62 61 61 61 61 61 60 60 59 59 60 60 58 57 58 59 59 59 58 57 57 56 53 52 52 51 52 55 54 54 55 55 55 54 50 48 46 50 55
64 64 64 65 65 65 65 65 65 65 64 65 64 64 64 64 64 65 62 62 62 61 60 60 60 59 60 60 61 59 59 58 58 58 60 58 58 58 58 57 56 56 56 55 56 55 53 52 52 52 51 52 52 52 52 53 53 52 50 47 47 50
63 64 65 65 65 66 66 66 65 65 64 63 64 63 64 64 63 63 62 61 60 59 58 58 58 58 59 59 59 59 58 58 57 59 59 57 57 57 57 56 56 56 56 55 55 55 54 52 53 53 52 53 51 51 51 51 51 51 52 53 48 49
63 64 65 65 65 65 66 66 65 64 64 63 63 63 62 61 62 61 59 58 58 57 57 56 56 57 57 58 58 59 57 57 58 58 58 57 56 56 56 56 56 56 56 55 53 54 54 54 53 53 53 52 52 51 49 48 49 51 51 49 48 48
62 63 64 65 65 65 65 65 65 64 63 63 63 63 62 61 62 60 59 57 57 57 56 56 55 55 56 56 57 56 57 56 57 56 56 56 57 56 56 56 55 55 55 55 55 55 53 53 53 53 53 53 53 53 52 50 51 51 49 48 48 47
61 62 62 63 63 63 63 63 63 63 63 63 63 63 62 62 62 60 58 57 56 55 54 54 54 54 54 55 56 55 55 55 55 56 56 56 56 56 56 55 55 55 54 54 54 53 53 52 52 52 51 53 53 52 52 51 52 51 51 50 49 46
60 61 62 62 62 62 62 62 63 62 62 62 61 61 60 60 60 59 58 57 56 54 53 53 53 53 54 55 56 56 56 56 56 56 57 56 56 56 56 56 55 53 54 54 54 53 53 53 53 53 53 52 53 52 51 52 52 52 51 49 47 46
60 61 61 61 61 61 61 61 61 61 61 61 60 59 59 59 58 58 57 57 55 55 53 54 53 54 55 55 55 56 56 55 55 55 55 55 56 55 54 55 55 54 54 54 54 53 53 53 53 53 52 52 52 52 51 52 53 51 52 50 48 47
60 60 60 60 60 60 60 61 60 60 60 60 60 59 59 59 58 58 57 56 55 54 54 53 54 54 55 55 55 55 55 55 55 55 55 55 54 55 53 53 53 53 53 56 54 53 52 53 52 51 52 52 51 51 52 52 52 51 50 50 49 48
59 59 59 58 58 59 59 59 59 59 59 59 59 58 57 57 57 57 56 55 54 54 54 54 56 54 54 54 55 54 54 54 54 54 54 54 54 54 54 53 53 52 52 53 53 53 52 52 52 51 51 52 51 51 51 51 51 50 50 49 49 49

ECMWFFLT2_sfc_temp_108.txt.gz
Temp
72 73 73 72 72 72 74 75 75 75 75 75 75 75 74 75 74 75 74 74 74 70 69 70 70 70 74 71 73 74 74 74 74 74 74 74 74 73 73 74 74 73 74 74 73 74 73 73 73 73 73 73 74 69 67 66 67 69 68 68 70 67
71 71 71 72 72 73 74 74 71 72 72 73 74 75 73 71 75 70 75 72 69 70 69 68 68 74 70 71 71 74 74 74 74 74 74 74 74 73 73 73 73 74 74 74 74 67 67 71 73 73 73 74 71 67 67 67 67 67 69 68 69 68
70 70 70 70 71 72 72 70 70 70 72 74 74 73 69 72 69 69 69 69 71 69 69 69 70 72 71 73 71 74 74 74 74 74 74 74 74 74 74 74 73 73 73 73 69 66 66 66 67 72 73 71 68 68 67 68 68 66 68 69 69 71
70 70 70 69 70 71 69 69 69 70 70 69 69 70 69 70 69 69 69 68 69 70 71 68 74 76 75 71 69 73 75 74 74 74 74 72 72 72 73 73 73 74 71 68 65 65 67 67 68 68 68 68 68 68 68 69 69 69 68 72 71 72
70 70 69 69 70 69 69 69 68 69 69 69 68 69 69 69 69 68 68 69 68 70 69 67 68 69 67 67 67 66 67 68 67 67 71 68 67 68 69 67 66 67 64 64 65 66 66 67 68 69 69 68 68 69 69 69 69 69 70 70 71 73
71 70 69 69 69 71 70 68 68 69 69 69 70 69 69 69 68 68 69 69 70 68 68 66 67 66 67 66 66 67 66 67 66 67 69 66 66 67 67 67 68 68 66 65 65 66 66 68 68 68 69 69 69 69 69 69 69 70 71 69 70 74
71 70 69 70 70 70 69 69 69 69 69 69 70 69 68 67 68 68 69 70 68 67 66 66 66 65 65 66 66 65 66 67 67 66 68 66 67 67 67 67 67 67 67 67 68 68 68 69 68 69 69 70 69 70 70 70 69 69 68 67 70 74
71 70 69 70 70 69 68 69 69 71 70 70 70 69 68 68 69 69 70 71 71 67 66 66 66 65 65 66 67 67 66 67 67 67 68 67 66 66 67 68 68 69 70 70 71 71 69 70 69 67 69 69 70 70 69 69 71 70 69 66 68 73
70 70 70 70 70 69 68 69 69 69 68 73 70 69 69 69 69 69 70 71 70 66 66 66 66 66 65 66 67 68 66 65 66 68 67 66 66 66 66 66 67 68 68 69 68 68 69 69 68 68 68 68 68 68 68 69 69 70 70 67 67 69
71 71 70 70 70 69 68 67 67 68 70 71 68 69 69 68 68 69 69 69 70 67 68 67 66 66 66 65 66 66 66 65 66 66 66 66 67 67 66 66 67 67 69 68 68 68 69 69 71 69 69 70 69 69 68 68 69 68 68 67 66 68
70 71 69 69 67 67 67 66 67 68 68 68 68 69 68 68 67 67 67 68 69 70 69 67 67 66 65 65 65 64 65 65 65 66 66 66 65 67 66 66 67 67 68 68 68 68 68 69 69 70 68 70 69 69 69 70 68 68 68 68 65 66
69 69 69 67 67 66 67 67 67 67 67 68 69 68 68 68 68 66 67 66 68 68 69 68 68 67 66 66 65 65 64 64 65 65 65 65 66 66 66 67 68 69 67 67 68 68 69 67 68 69 69 68 68 69 69 69 68 68 68 68 67 67
68 68 67 66 66 66 66 67 67 67 67 68 68 68 68 67 67 67 66 66 67 68 69 68 67 67 67 64 65 64 64 65 64 65 66 66 67 66 67 67 68 68 68 67 68 67 69 68 68 68 68 69 68 69 69 69 69 68 67 68 68 66
67 67 66 66 66 66 66 66 67 66 67 67 67 67 67 67 68 67 66 66 67 67 68 67 68 67 66 66 65 65 64 65 65 65 65 66 66 65 66 67 66 67 68 66 66 66 66 66 67 66 67 68 68 68 68 69 67 69 67 68 68 66
67 66 67 66 66 66 66 66 66 66 66 66 66 66 66 66 66 66 66 66 67 67 68 69 68 67 67 67 66 65 65 66 65 65 66 67 66 66 66 66 65 65 65 65 65 66 65 64 65 66 66 66 66 67 67 67 68 68 68 68 68 67
66 66 66 66 66 66 66 66 66 67 66 66 66 66 66 66 65 66 66 66 67 68 68 69 69 68 67 66 66 65 66 66 67 67 66 66 66 65 65 65 65 64 63 64 64 64 64 63 64 65 65 65 65 66 65 66 67 67 69 68 68 68
65 65 66 66 66 66 66 66 66 66 66 66 66 66 66 66 65 65 66 66 66 68 69 69 68 68 67 66 65 65 65 66 66 65 65 64 64 64 64 64 63 64 63 61 62 63 63 62 63 64 64 64 64 65 65 65 66 66 67 67 67 67
65 65 65 65 65 65 65 66 65 65 67 66 66 66 66 66 65 65 66 65 67 68 68 68 68 68 67 67 65 65 65 65 65 64 63 63 62 64 63 62 62 62 63 62 61 61 61 61 63 63 63 63 63 63 64 65 66 66 65 66 67 68
65 65 65 65 66 65 65 65 65 65 65 65 65 65 65 65 65 65 66 67 68 68 68 68 67 67 66 66 65 65 64 64 64 63 63 63 62 62 63 62 61 61 62 62 61 61 60 60 61 61 62 62 61 62 63 64 65 65 65 65 66 67
65 65 65 64 64 64 64 64 64 64 64 64 64 65 65 65 65 65 67 67 67 67 68 68 67 67 66 66 65 65 64 64 64 63 62 61 61 61 60 60 61 61 60 61 62 61 60 59 60 58 60 61 60 61 62 63 64 64 65 65 65 65
65 65 64 63 63 63 63 63 63 63 63 63 64 64 65 65 66 67 67 67 67 66 66 67 68 67 66 66 65 65 64 63 62 62 61 60 60 60 61 60 59 60 59 59 58 59 59 58 57 56 56 58 59 61 61 62 63 63 63 64 64 63
65 65 64 64 64 63 63 63 63 62 63 63 64 63 63 65 66 66 66 65 65 65 65 65 66 66 66 65 64 63 62 61 61 61 61 61 61 61 60 59 59 57 58 57 56 58 58 57 53 52 52 54 55 59 60 61 61 62 62 62 62 61
65 65 64 65 64 63 62 64 64 63 64 64 65 65 66 66 66 65 64 64 65 64 64 64 64 64 63 62 61 61 60 60 60 61 59 58 58 58 58 57 57 55 55 57 56 58 57 56 51 53 52 51 50 54 55 57 58 60 61 60 61 60
65 64 64 64 63 63 64 65 65 65 65 65 64 66 65 65 64 64 63 64 64 63 63 63 63 63 61 60 60 59 59 59 59 59 58 57 57 56 57 56 56 56 54 52 53 54 57 56 54 52 49 50 51 50 48 50 52 57 58 59 59 58
64 63 63 65 64 64 65 64 64 65 66 65 66 64 62 61 62 63 62 62 62 62 62 61 61 61 61 59 59 58 58 58 58 57 58 57 56 56 56 55 55 55 54 51 51 52 55 56 55 56 51 50 49 49 47 50 51 49 56 56 56 57
63 63 63 64 65 65 64 64 63 62 62 62 61 60 59 58 59 59 60 61 61 61 61 60 60 60 60 60 58 57 57 58 57 57 57 56 56 56 56 56 55 54 54 53 52 51 51 56 55 55 55 54 53 48 46 49 47 44 52 53 54 55
63 63 64 64 65 65 63 64 64 64 63 62 61 60 61 61 60 60 60 60 60 60 60 59 59 59 58 59 57 57 57 57 57 57 58 56 55 55 55 56 56 55 53 54 52 50 50 50 52 54 54 53 54 53 52 48 44 45 43 47 51 53
64 64 64 64 64 64 63 63 63 63 63 62 61 60 61 60 61 61 60 59 59 59 59 59 58 58 58 58 58 56 57 57 57 57 58 55 55 55 55 56 56 54 54 53 52 51 49 50 49 50 53 52 53 53 52 51 49 46 45 43 45 50
63 63 63 64 64 64 64 65 64 64 62 62 62 61 62 62 60 60 58 58 58 58 57 57 57 57 57 57 58 56 56 56 56 56 57 55 55 55 54 53 53 53 52 52 53 53 51 50 50 49 50 50 51 50 50 50 50 49 46 42 42 44
62 63 63 64 64 64 65 65 64 63 62 62 62 61 61 59 58 58 57 57 56 56 56 56 56 56 56 56 56 56 56 55 55 56 57 54 54 54 53 53 53 52 52 52 52 52 52 50 51 50 50 49 48 47 47 47 46 46 45 46 42 43
63 63 64 64 64 64 64 65 64 63 62 61 61 60 58 57 57 57 56 56 55 55 55 54 54 55 55 55 55 56 55 55 56 56 55 53 52 52 52 53 53 53 52 52 51 52 52 52 51 51 49 48 47 47 45 45 45 45 44 42 41 42
62 63 63 62 62 62 64 64 64 63 62 62 61 60 58 57 57 56 55 54 54 54 53 53 53 53 53 54 55 54 55 54 54 53 53 53 53 53 53 53 52 52 52 52 52 52 51 50 50 50 49 49 48 49 48 47 46 46 44 43 42 41
61 61 61 61 61 61 61 61 61 61 60 60 60 59 58 57 57 56 55 54 53 52 52 52 52 52 52 53 54 53 53 53 53 54 53 53 52 53 52 52 52 52 52 51 51 51 50 49 49 49 48 49 49 48 47 48 47 46 45 44 43 40
59 60 61 61 61 60 59 58 58 58 58 59 58 58 57 57 56 56 55 54 53 52 52 52 52 51 52 53 53 53 53 52 52 53 53 52 52 53 53 52 52 51 51 51 51 50 50 50 49 49 49 48 48 47 47 47 46 46 44 43 42 41
57 58 59 59 59 59 57 58 58 58 58 58 57 57 56 56 56 55 55 54 53 53 53 52 52 53 53 52 52 53 53 52 52 52 52 52 53 52 52 52 52 52 51 51 51 51 50 50 49 48 48 48 48 47 46 47 46 45 45 44 43 42
58 57 58 58 57 57 57 57 57 57 57 58 58 57 56 56 55 55 55 54 53 53 52 52 53 52 52 52 52 52 52 51 51 52 52 52 51 51 51 51 50 51 51 53 51 50 50 49 48 48 47 47 47 45 46 46 46 45 45 45 45 44
57 57 57 57 56 57 56 56 56 56 56 56 56 55 55 54 54 55 55 54 53 52 52 53 53 53 52 51 51 51 51 51 51 51 51 51 51 51 51 51 50 50 50 50 51 50 49 48 48 48 47 47 46 45 45 45 45 46 46 45 45 43

ECMWFFLT2_sfc_temp_111.txt.gz
Temp
73 72 72 72 71 71 74 75 74 75 75 75 74 74 74 74 74 74 73 74 72 68 67 67 67 67 73 70 72 73 74 74 73 74 74 73 73 73 73 73 73 73 73 73 73 73 72 72 72 72 73 73 74 69 64 64 64 65 65 65 70 66
72 72 72 72 72 71 72 73 70 71 71 72 74 74 72 70 74 69 74 70 67 70 67 66 67 73 69 70 70 73 74 74 74 74 74 74 74 73 73 73 73 73 73 73 73 67 66 68 71 72 73 73 69 66 65 65 65 65 67 65 69 68
72 72 72 72 72 70 70 69 70 70 71 73 73 72 68 71 67 67 68 67 69 67 67 68 69 71 71 72 70 73 74 74 74 74 74 74 73 73 73 73 73 73 73 72 66 63 64 64 65 71 71 68 66 67 67 67 65 65 67 66 68 70
71 71 71 71 71 71 71 70 70 70 68 68 67 69 67 68 68 67 67 67 69 68 69 67 73 75 74 69 67 70 73 72 72 71 72 70 70 71 72 71 71 72 69 66 62 63 64 64 66 66 66 66 66 67 67 68 67 67 67 69 70 71
71 71 70 71 71 71 70 70 69 69 68 67 67 67 67 67 67 67 67 68 67 69 68 67 67 67 67 67 66 66 66 67 67 67 70 66 66 66 67 65 64 66 62 63 64 64 63 64 66 66 66 66 67 67 67 68 67 67 67 67 69 72
70 70 70 71 71 72 71 69 69 69 68 67 68 67 67 68 67 68 67 68 69 66 66 66 66 66 67 66 67 66 66 67 67 68 69 66 65 66 66 66 66 66 65 63 63 64 64 66 66 66 66 66 67 67 67 67 67 67 68 67 68 72
69 69 69 70 70 71 69 69 68 68 68 68 67 67 67 67 67 67 68 69 67 66 65 65 65 65 65 66 66 65 67 67 67 67 69 67 66 66 66 66 66 67 65 65 66 66 65 66 65 66 66 67 67 67 67 67 67 67 67 67 69 73
69 69 69 69 69 69 68 68 68 70 70 69 69 67 68 67 67 68 69 69 70 67 66 65 65 64 65 66 67 67 67 66 66 67 68 67 66 65 66 66 67 67 67 67 68 68 66 67 66 65 66 66 67 67 67 66 67 67 67 67 67 70
69 69 69 69 69 68 68 68 67 68 68 71 68 68 67 66 67 68 69 69 70 66 66 65 63 64 64 66 67 67 66 65 66 67 67 66 65 65 65 65 66 66 67 67 66 67 67 67 66 65 65 66 66 65 65 65 65 66 66 65 65 67
69 69 69 69 68 67 67 67 66 67 67 70 67 67 66 66 66 67 66 67 69 66 64 64 65 66 65 65 66 65 65 65 66 66 65 64 64 65 65 64 65 66 67 66 67 67 67 67 68 66 65 66 66 66 65 65 66 66 66 65 64 67
68 69 69 68 67 67 67 66 67 67 68 68 67 68 67 66 66 65 65 66 67 68 68 66 66 65 65 65 65 63 64 64 65 65 64 63 64 65 64 64 64 65 65 65 66 66 66 67 66 67 66 67 67 67 67 67 67 68 68 67 65 65
67 68 68 67 67 66 66 66 66 66 66 67 67 67 66 66 66 65 66 65 66 66 68 68 67 64 64 64 63 63 63 63 63 64 64 64 65 65 65 66 66 66 65 65 65 65 66 64 65 66 66 66 66 67 66 66 67 67 66 67 66 66
66 67 67 66 66 66 66 66 66 66 66 67 67 66 66 65 65 65 65 65 66 67 67 67 66 67 67 63 64 63 63 64 64 64 65 65 66 65 65 65 65 66 65 64 65 64 65 64 64 64 65 66 65 66 66 65 66 66 66 66 66 66
67 66 66 66 66 66 66 66 66 66 67 66 66 66 66 66 66 65 65 65 66 67 67 66 66 65 65 64 65 65 64 65 65 65 65 65 64 64 63 63 63 63 65 63 62 62 62 62 62 63 64 64 64 64 64 65 64 64 65 66 66 66
67 66 66 66 66 66 66 66 65 65 65 65 65 66 66 66 65 65 65 65 66 67 68 67 66 66 65 65 65 65 65 65 65 64 64 64 63 63 63 62 62 62 62 62 61 62 61 61 61 62 62 62 63 63 64 64 65 66 66 65 65 65
66 65 65 66 65 66 65 65 65 67 65 65 65 65 65 65 65 64 65 66 67 68 67 67 67 66 65 65 64 64 64 64 64 64 63 63 63 62 62 62 62 61 60 60 61 60 60 60 60 61 62 62 62 63 62 63 64 64 65 64 64 63
65 65 65 65 65 65 65 65 65 65 65 65 64 65 65 65 65 65 66 66 66 67 66 66 66 66 64 64 64 63 63 63 64 63 62 62 62 61 61 62 61 61 60 58 59 59 59 59 59 60 60 60 61 62 62 62 63 63 63 62 62 62
65 65 65 65 65 65 65 65 65 65 66 65 65 65 65 65 65 65 65 65 66 66 66 66 66 66 65 65 63 63 63 63 63 62 62 61 60 61 60 60 59 60 60 58 57 57 56 57 59 60 59 59 60 60 61 62 62 63 61 60 60 60
65 65 65 65 65 65 65 65 65 65 65 65 65 64 65 65 65 65 64 65 65 66 66 66 66 65 64 64 63 63 63 62 62 61 61 60 60 60 60 59 58 58 59 58 56 56 56 56 58 57 58 58 58 60 60 62 62 61 60 59 60 60
64 65 65 65 65 64 64 64 64 64 64 64 64 65 65 64 64 64 65 65 64 64 65 65 65 65 64 63 62 62 61 62 62 61 59 58 58 57 57 57 58 58 56 57 57 56 56 55 55 53 56 57 57 59 60 60 60 59 59 59 58 59
65 65 64 64 64 64 63 63 63 63 63 64 64 64 63 63 64 64 64 64 63 64 64 64 65 64 63 64 63 63 62 61 60 60 58 57 57 57 58 57 56 58 56 54 55 55 56 54 53 52 52 53 56 58 59 59 58 58 57 58 58 57
65 64 64 64 64 63 63 64 63 63 63 63 62 62 62 62 62 63 64 63 63 63 63 63 63 63 63 62 62 62 61 59 58 58 58 58 58 58 56 56 55 54 55 54 53 54 55 53 51 50 49 51 52 54 57 57 58 57 57 57 57 56
64 63 63 64 63 63 63 63 64 64 63 62 63 64 64 63 63 62 62 63 62 62 62 61 61 62 61 60 59 59 58 58 57 59 57 56 56 55 55 54 54 52 51 53 54 56 54 54 49 49 51 51 47 48 51 52 54 56 56 55 56 55
64 63 63 64 64 63 64 64 65 64 62 62 62 64 63 62 62 61 61 62 61 61 61 60 61 60 59 59 58 58 57 57 57 57 56 55 54 54 54 54 53 53 51 51 51 53 55 54 52 49 47 48 48 45 43 46 49 51 53 54 54 53
64 63 64 64 64 64 65 64 63 63 63 63 63 62 60 59 60 61 60 59 59 60 60 59 59 59 59 57 57 57 57 57 57 56 56 55 54 54 53 53 53 52 51 49 50 50 54 54 54 54 50 47 45 44 43 46 47 42 49 51 52 52
64 63 63 63 64 64 64 63 62 61 60 60 59 57 56 55 57 57 57 58 59 59 59 58 58 58 58 58 57 57 57 57 56 56 55 54 54 54 53 53 52 52 51 51 50 50 50 54 54 53 53 51 49 44 43 44 44 42 47 47 50 50
64 63 63 63 65 65 63 62 62 62 61 60 58 57 58 58 58 58 58 57 57 57 58 57 57 57 57 57 57 57 56 56 56 55 56 54 54 53 53 53 54 52 51 52 51 48 47 48 50 52 51 51 51 49 47 44 41 41 39 42 46 48
64 64 64 64 64 65 63 62 62 61 61 60 58 57 59 58 58 58 57 56 56 55 56 56 56 56 57 57 57 56 56 56 55 55 56 53 53 53 53 54 54 52 53 52 50 49 48 48 47 47 51 49 49 49 48 47 45 43 41 39 40 46
64 64 63 64 64 65 65 63 63 61 60 59 60 59 60 60 58 57 55 55 55 54 55 55 55 55 55 56 57 56 55 55 54 55 55 53 53 53 52 52 51 51 51 51 52 51 49 47 47 45 46 46 47 46 46 46 46 45 42 38 37 40
63 63 63 64 65 65 65 63 61 60 59 58 59 59 58 57 56 55 54 54 53 53 53 53 53 54 54 55 55 55 54 54 54 55 55 52 53 52 52 51 51 51 51 50 50 50 49 47 48 47 46 45 44 44 44 43 43 42 40 41 37 38
63 63 63 63 65 65 65 64 61 60 60 59 59 57 56 55 54 53 53 52 52 52 52 51 52 53 53 54 54 55 54 54 54 55 53 52 51 51 51 51 51 51 51 50 49 49 49 48 48 47 46 45 44 43 41 40 39 40 39 37 37 38
62 63 63 64 65 65 65 63 62 62 61 60 58 57 55 54 54 53 52 51 51 51 50 51 51 51 52 53 53 53 53 53 53 52 51 51 51 51 51 51 51 51 50 50 50 49 47 46 46 46 45 45 44 44 43 42 42 42 40 40 38 37
62 62 63 63 63 63 62 61 61 61 60 60 58 57 55 54 54 53 52 51 50 49 50 51 50 51 51 52 53 52 52 52 51 52 51 51 51 51 51 51 51 50 49 48 48 47 46 45 45 45 44 45 44 44 43 43 43 42 42 41 40 37
61 61 61 61 60 60 61 61 62 61 60 59 56 56 55 54 53 52 52 51 50 50 50 49 50 50 51 52 52 52 52 51 51 52 52 51 51 51 51 51 50 49 48 48 48 47 46 46 45 45 45 44 44 43 42 44 43 43 41 40 39 38
59 59 60 59 59 60 60 60 60 59 58 57 56 55 54 54 53 52 52 51 50 50 50 50 50 50 51 51 51 51 51 50 51 50 51 51 51 50 51 51 50 49 49 48 48 47 46 46 45 44 44 44 45 43 42 43 42 43 42 41 40 39
59 59 59 59 59 59 57 57 57 57 56 57 56 55 54 54 53 53 52 51 50 50 50 49 50 50 50 51 50 50 50 49 50 50 50 50 50 50 50 49 49 49 48 50 47 46 46 45 44 43 43 43 43 43 44 43 44 42 42 42 42 41
58 59 59 58 58 57 56 55 55 56 56 55 54 54 53 52 52 52 52 51 50 50 50 50 50 50 50 50 49 49 49 49 49 49 49 49 49 49 49 49 48 47 47 47 47 45 45 44 44 43 43 43 43 43 43 44 43 43 43 42 41 41

ECMWFFLT2_sfc_temp_114.txt.gz
Temp
72 72 72 72 72 72 74 75 74 75 75 75 74 74 73 74 74 74 73 73 70 68 67 67 66 67 73 70 73 73 74 74 73 74 74 74 74 73 73 73 73 73 73 73 73 72 72 72 72 72 73 73 73 67 65 66 66 68 70 69 71 70
72 72 72 72 72 72 73 73 71 72 72 72 74 74 72 71 73 69 73 69 68 71 67 66 66 70 69 71 70 73 74 74 74 74 73 73 73 73 73 73 73 73 73 72 72 67 66 68 71 72 73 73 69 68 68 68 68 69 70 69 70 70
72 72 72 72 72 71 71 70 71 71 71 73 73 72 70 71 68 68 69 68 70 68 67 68 70 70 72 72 71 73 74 73 73 73 73 72 72 72 72 72 72 72 71 70 66 65 65 66 66 71 70 69 68 69 69 69 69 69 69 70 71 71
71 72 71 71 71 71 71 71 71 70 69 69 69 69 69 70 69 68 68 68 68 69 70 68 72 74 72 68 67 69 71 70 70 70 72 68 69 70 71 70 71 71 67 65 64 66 66 66 67 66 67 67 68 68 68 69 69 69 69 70 72 72
72 72 71 71 71 71 71 71 71 69 68 68 68 68 69 68 68 67 67 69 68 69 68 68 68 67 67 67 66 66 67 67 67 68 69 66 65 66 67 66 66 66 65 66 66 66 66 67 67 67 67 67 68 68 68 69 69 69 70 69 70 71
71 71 71 71 71 72 71 70 69 69 68 68 68 68 67 67 66 67 66 68 70 68 67 67 66 66 67 66 66 66 66 67 67 68 68 67 66 66 66 67 67 67 67 66 66 66 67 68 67 67 67 68 68 68 69 69 69 69 69 69 70 72
70 70 71 71 71 71 70 70 70 69 68 67 68 68 67 66 66 66 67 69 68 67 66 65 65 65 66 66 66 66 67 66 66 67 68 67 66 66 66 67 67 67 67 68 69 69 68 68 67 68 68 69 69 69 69 69 69 69 69 69 70 72
70 70 70 71 71 70 69 69 69 70 68 68 68 68 67 66 66 67 69 69 69 66 66 65 65 64 65 66 67 68 67 66 66 66 67 67 66 66 67 67 67 67 68 68 69 69 69 69 68 67 68 69 69 69 69 69 69 69 69 68 69 70
69 70 69 70 69 70 69 69 69 69 68 71 68 68 66 66 67 68 70 70 69 66 66 66 64 65 65 66 67 67 65 65 66 66 66 66 66 66 66 66 67 67 67 67 68 68 69 69 68 68 68 69 68 68 68 69 69 69 69 69 68 70
69 69 69 69 69 68 68 68 68 69 68 70 67 66 67 66 67 67 67 68 69 67 65 65 66 65 65 65 66 66 65 65 66 66 65 65 65 66 65 66 67 67 67 67 67 68 68 68 68 68 68 68 67 67 68 68 68 69 69 69 68 68
68 70 69 69 68 68 68 67 66 66 67 67 67 67 67 66 65 65 65 66 67 69 69 67 66 65 64 64 64 64 64 65 65 65 65 65 66 66 65 65 66 66 66 66 66 67 67 66 66 68 67 67 66 67 67 67 68 68 68 67 67 67
67 68 68 67 67 66 66 66 66 66 66 66 67 66 66 66 66 65 66 65 66 66 68 67 67 65 65 64 64 63 64 64 64 65 65 65 65 65 66 66 67 67 65 65 65 65 66 65 65 66 66 66 66 66 66 67 67 66 66 66 65 65
67 67 66 65 65 65 65 66 66 65 66 67 67 66 66 65 65 65 65 66 66 67 67 66 66 66 66 64 64 64 65 65 64 65 65 65 65 64 64 65 65 65 65 64 64 64 65 64 64 65 65 66 66 66 66 66 65 65 64 64 64 63
67 65 65 65 65 65 65 65 66 66 67 66 66 66 66 66 66 65 65 66 66 68 67 66 66 66 64 64 65 65 64 64 64 64 64 64 63 63 63 63 63 63 64 63 62 62 62 63 63 64 64 64 64 64 65 65 64 64 63 63 63 63
67 65 66 65 66 65 65 65 65 66 66 66 66 66 66 65 65 65 66 66 67 68 67 67 66 65 65 65 64 64 64 63 64 63 63 63 63 62 62 62 62 62 61 61 61 62 61 61 62 62 63 63 63 63 64 63 63 63 63 62 62 62
65 65 65 65 65 65 64 65 66 67 66 66 66 66 65 65 65 65 66 66 67 67 66 66 66 65 64 64 64 63 63 63 63 63 62 63 63 62 62 61 61 60 59 59 60 59 60 60 61 62 62 62 62 63 62 62 61 61 62 61 61 61
64 64 64 64 64 65 65 65 66 65 65 66 65 65 65 65 65 65 65 66 66 66 65 65 65 65 64 63 63 62 62 62 63 62 62 61 61 61 61 61 59 60 59 57 58 58 58 58 59 60 61 61 61 61 60 60 60 60 60 59 59 60
64 64 64 64 64 65 65 66 66 66 66 65 65 65 65 65 65 65 65 65 67 67 66 66 65 65 64 64 62 62 62 62 62 61 61 60 60 61 60 60 59 59 58 57 56 56 56 56 58 59 60 60 60 60 60 59 60 60 59 58 58 58
64 64 64 65 65 65 65 65 66 65 65 65 65 65 65 65 64 64 64 66 67 67 67 66 66 65 63 63 62 62 61 61 61 60 60 59 59 60 60 59 58 57 58 57 56 56 55 55 57 58 59 59 59 58 59 59 59 58 57 57 58 58
64 64 65 65 65 65 65 64 64 64 64 64 64 64 64 64 64 64 65 66 66 66 66 66 65 65 64 62 61 61 60 61 60 60 59 58 57 58 57 57 57 57 55 57 57 56 55 55 55 57 59 58 58 58 57 58 57 57 57 56 56 57
64 65 64 64 64 64 63 63 64 63 63 63 63 62 62 63 64 64 65 65 65 65 65 65 65 65 64 64 62 62 60 60 60 59 58 57 57 57 57 57 56 57 56 55 55 56 55 55 56 56 56 56 57 58 58 57 56 56 55 56 56 56
64 64 64 64 64 64 64 64 63 63 63 62 62 61 61 63 63 63 64 64 64 63 63 63 64 63 63 62 60 60 60 59 59 58 58 58 57 57 56 55 56 55 55 54 53 54 54 54 53 52 53 54 55 56 57 56 56 55 55 55 55 54
64 64 64 65 64 64 64 65 64 63 62 61 62 63 63 63 63 62 62 62 63 62 62 62 62 62 61 60 59 58 57 57 57 58 56 55 55 54 54 54 54 54 53 55 54 55 54 54 52 52 52 53 50 51 54 53 54 54 54 53 53 53
64 64 64 65 64 64 65 64 64 63 62 62 61 63 63 63 62 61 60 61 61 61 61 61 61 61 59 58 58 57 57 57 56 57 55 54 54 53 53 53 53 54 54 52 52 53 55 53 52 52 51 50 49 46 45 49 49 52 53 53 52 52
64 64 64 65 64 65 64 62 62 62 63 62 63 62 61 60 61 61 60 59 59 60 60 59 59 59 59 57 57 57 57 56 56 56 56 54 53 53 53 52 52 52 51 52 51 51 53 53 52 53 51 50 48 47 46 48 48 47 50 51 52 52
64 64 64 64 65 64 63 61 60 60 59 59 59 58 57 57 58 57 57 58 58 58 58 58 58 58 58 58 56 57 56 56 55 55 54 53 53 53 52 52 52 52 51 52 52 50 50 53 52 52 51 51 50 47 46 47 48 48 50 48 51 51
64 63 64 64 65 64 62 61 62 62 61 61 58 57 58 58 58 57 58 56 56 57 57 57 57 57 57 57 56 56 55 55 55 55 56 53 53 52 53 53 53 52 51 52 51 48 48 49 51 51 51 50 50 48 48 46 44 43 44 47 48 50
63 63 64 64 65 64 63 62 61 61 61 59 58 56 57 57 58 57 56 55 55 55 56 56 56 56 57 57 56 55 55 55 54 55 55 53 52 52 53 53 53 52 52 51 50 48 47 48 47 47 50 48 48 48 47 46 46 45 44 42 45 49
63 63 64 65 65 64 64 63 62 61 58 58 58 57 58 58 57 57 55 55 54 54 54 55 55 55 55 56 57 55 54 54 54 54 55 53 52 52 52 51 51 50 50 50 50 49 48 46 46 45 46 46 46 46 46 45 45 45 43 42 42 43
63 63 64 65 65 65 64 63 60 59 58 57 58 57 56 55 55 55 54 53 53 53 53 54 54 54 54 55 54 55 54 54 53 54 54 52 52 52 51 51 50 50 50 49 49 49 47 47 47 46 46 45 44 44 44 44 43 43 42 43 41 42
63 63 63 64 65 64 64 63 60 59 58 57 57 56 54 54 54 54 53 53 52 52 52 52 53 53 53 54 54 55 53 53 54 54 53 52 51 51 51 50 50 50 49 48 48 47 48 47 47 46 46 45 44 44 42 41 41 42 41 40 40 41
61 62 63 64 64 64 64 61 60 59 58 57 57 56 54 54 54 53 53 52 51 52 51 52 52 52 52 53 53 52 53 52 52 51 51 51 51 51 51 51 50 49 48 48 48 48 47 46 46 46 45 45 45 45 44 44 44 43 42 41 40 39
61 62 63 64 64 64 63 61 61 59 58 58 57 56 55 54 54 53 52 52 51 51 51 51 51 51 51 51 52 51 51 51 51 52 51 51 51 51 51 50 49 48 48 47 47 47 46 45 46 45 45 45 45 45 44 45 44 43 43 43 41 39
62 62 63 64 64 62 61 61 61 59 58 58 56 56 55 54 53 53 53 52 51 51 50 50 50 50 50 51 51 52 52 51 52 52 52 51 51 51 51 50 49 48 47 47 47 47 46 46 45 45 46 45 45 45 45 45 44 44 42 42 41 39
61 62 62 62 63 61 60 60 59 59 58 58 57 56 55 54 53 52 52 51 50 50 50 50 50 51 51 50 51 51 51 51 51 51 51 51 51 50 50 50 49 48 48 47 47 47 46 46 45 45 45 45 45 45 44 45 44 44 44 42 42 41
61 61 62 62 61 61 60 60 60 59 58 58 57 56 55 54 53 52 52 51 50 50 50 50 50 50 50 51 50 50 51 50 51 51 51 51 50 50 49 49 48 48 48 49 46 46 46 46 45 44 45 45 45 44 44 45 45 44 44 44 43 42
61 61 61 61 60 60 59 59 58 58 58 57 56 55 54 52 52 52 51 51 50 49 50 50 50 50 49 50 50 50 50 49 50 50 50 50 50 49 49 49 48 47 46 47 47 46 46 45 45 45 45 44 44 44 44 44 44 44 44 44 43 43

ECMWFFLT2_sfc_temp_117.txt.gz
Temp
78 78 79 78 78 79 77 75 76 75 75 75 75 74 74 74 75 75 75 72 72 75 76 76 75 78 75 77 74 74 75 75 75 75 74 73 73 73 73 73 73 73 73 72 73 72 72 72 72 73 73 74 73 80 81 82 82 83 84 85 84 86
77 77 78 78 78 78 77 77 78 78 78 77 76 76 77 78 77 78 74 75 77 77 77 77 77 76 78 77 77 74 75 74 74 74 73 73 73 73 73 73 73 73 72 73 70 81 79 75 72 73 73 72 80 82 81 81 81 84 84 85 84 81
77 77 76 78 78 77 76 78 78 78 78 77 77 77 78 77 78 78 78 78 77 77 77 78 77 77 77 73 75 73 73 73 72 73 73 72 72 72 72 72 72 72 71 69 79 82 83 84 82 75 76 81 83 82 81 81 82 83 84 83 85 75
76 77 76 77 77 77 77 78 78 78 78 78 77 77 77 77 77 76 76 76 76 77 77 77 75 74 76 78 76 72 70 70 71 72 70 75 74 73 72 72 71 72 75 80 83 84 85 84 84 83 82 83 83 82 83 82 84 84 83 84 85 73
77 76 76 76 76 76 76 78 78 77 77 77 76 76 77 77 76 75 75 76 77 76 77 77 77 78 78 77 78 77 77 78 78 77 74 78 78 79 79 82 81 80 82 82 83 82 83 83 82 83 82 82 82 82 83 83 83 84 84 83 79 72
76 76 76 76 75 75 76 76 75 75 75 76 76 76 76 76 76 75 76 76 76 75 75 76 75 75 74 75 76 78 77 77 77 77 78 79 79 79 80 82 81 82 82 82 82 82 81 81 82 82 83 82 82 82 83 84 84 83 82 82 77 72
75 75 75 76 75 76 76 76 75 75 75 75 75 75 76 77 77 76 75 76 75 75 75 76 75 74 73 75 75 74 75 74 76 77 77 78 78 79 80 80 81 81 82 82 83 83 82 82 81 83 83 83 82 83 82 83 83 82 81 81 77 72
74 75 74 74 75 75 75 75 74 75 76 75 75 75 76 76 76 75 75 76 75 77 76 76 76 75 73 74 74 74 74 77 77 75 76 77 78 79 80 80 80 81 82 82 83 82 82 82 81 80 81 81 82 80 80 81 80 80 80 79 77 72
74 74 74 73 74 75 74 73 74 75 76 76 76 75 75 76 76 75 76 76 77 75 77 76 76 75 74 73 73 73 73 75 75 75 76 76 78 78 78 79 79 80 80 81 81 80 81 81 80 80 80 80 79 79 78 79 79 79 79 78 76 73
74 75 73 73 73 73 73 72 73 74 76 76 75 75 75 76 76 76 75 75 76 75 75 76 75 75 75 72 72 73 73 73 73 74 75 76 77 77 78 79 79 80 82 80 80 79 80 80 81 79 79 79 77 77 77 77 77 77 77 76 75 74
74 74 74 73 72 73 73 73 74 75 76 76 76 75 74 75 73 75 75 74 75 76 75 74 74 75 75 74 73 73 72 74 73 72 73 74 76 77 77 77 77 78 79 79 78 79 80 79 79 79 77 78 76 76 75 75 75 75 75 74 74 74
73 73 72 72 72 72 73 73 73 73 74 75 74 73 73 73 73 73 75 74 74 74 74 74 74 75 74 73 74 74 73 74 73 72 73 74 74 75 77 77 77 76 75 77 77 78 77 78 77 78 78 76 76 75 75 74 73 73 73 73 73 72
73 72 72 71 72 72 72 73 73 73 73 73 73 73 72 73 73 74 74 75 74 74 75 74 74 75 76 77 74 73 72 73 74 73 73 74 75 75 76 77 76 76 76 77 76 76 78 76 75 75 75 75 75 75 74 73 72 71 71 72 72 72
73 73 72 72 73 73 73 73 73 73 72 72 72 72 71 72 73 73 74 75 74 75 75 75 76 76 75 74 74 74 73 73 73 72 73 74 75 74 75 75 75 76 74 75 74 74 75 74 75 75 73 73 72 71 72 72 71 70 70 70 70 71
73 73 73 73 74 73 73 72 71 72 72 71 71 71 71 72 73 74 74 73 74 75 76 77 77 75 75 75 75 74 73 73 72 73 74 73 74 74 74 74 74 75 74 74 74 72 73 72 72 71 71 71 70 70 70 69 70 70 70 69 69 69
72 72 72 72 73 72 71 71 72 71 71 71 70 71 71 72 73 73 73 73 74 75 76 76 76 75 74 75 75 73 73 72 72 74 73 73 74 73 72 71 71 72 72 72 73 70 71 71 70 69 69 69 69 69 68 68 68 69 69 69 68 67
71 71 72 72 71 70 71 71 71 70 70 69 69 69 70 71 72 72 72 73 74 74 75 74 75 74 73 74 74 73 72 71 71 72 71 71 72 72 71 70 68 68 69 70 71 70 69 69 68 68 68 67 67 67 67 67 67 67 67 66 66 67
71 72 71 70 70 70 70 69 68 68 68 68 69 70 71 72 72 72 73 74 74 74 74 74 74 73 73 73 73 73 72 71 72 71 70 71 70 71 70 70 68 68 68 69 69 68 68 69 68 67 66 65 65 66 66 66 66 66 66 65 65 65
69 69 69 69 69 69 69 68 68 68 68 68 69 69 70 71 71 72 73 73 74 73 73 73 72 72 72 72 72 72 71 70 71 70 70 71 70 69 69 68 68 67 67 67 67 66 68 68 66 66 65 64 64 64 65 65 65 65 65 64 64 64
68 69 68 67 67 67 68 67 66 66 66 66 67 68 69 70 71 72 72 73 73 72 73 72 72 72 72 71 72 71 70 70 70 70 69 69 69 69 67 67 66 66 66 67 67 67 67 68 66 64 63 63 64 64 63 64 63 63 64 63 64 65
66 67 67 66 66 66 66 65 66 65 64 65 66 67 68 68 70 71 71 72 71 72 71 71 71 70 70 69 69 69 68 68 70 69 67 66 66 66 66 66 65 65 65 65 65 66 65 68 65 63 63 62 62 64 63 62 62 62 62 63 64 63
66 66 66 66 66 67 68 67 66 65 65 65 65 65 66 68 69 68 69 69 70 70 70 69 69 69 69 69 68 69 69 68 68 67 66 66 65 65 65 66 66 65 65 64 62 63 64 66 66 64 61 61 62 63 64 63 62 61 62 62 62 61
66 66 66 67 67 68 68 69 68 66 66 64 65 66 67 67 68 67 67 67 66 65 66 67 67 67 66 67 68 68 67 67 66 67 66 64 64 64 64 64 65 65 64 64 64 63 62 63 66 65 66 64 62 61 61 63 62 61 61 61 61 60
65 66 66 68 68 69 69 69 69 68 67 67 65 65 65 66 66 65 64 65 65 64 65 66 67 67 67 67 67 67 67 66 65 65 65 64 63 63 63 64 64 63 64 63 63 62 62 61 63 64 63 64 62 64 61 59 59 60 62 61 60 59
65 66 67 68 68 67 67 66 65 64 65 64 65 65 65 64 64 64 64 63 63 65 65 66 66 66 68 66 66 66 66 65 64 64 65 64 63 62 63 63 62 63 63 63 60 59 60 61 60 61 65 64 63 63 60 60 61 59 62 61 61 62
66 67 68 67 67 67 66 65 64 62 60 61 60 62 64 63 62 63 62 63 64 65 65 65 66 66 67 66 65 65 65 65 64 64 63 63 63 62 61 62 62 62 61 62 61 60 58 60 59 59 59 59 60 62 62 61 61 57 60 61 60 60
67 67 67 66 67 68 66 67 66 64 63 64 62 62 63 63 62 62 62 62 63 64 65 64 65 66 66 66 65 65 64 64 64 63 63 62 61 61 61 61 62 62 61 61 61 59 58 58 59 58 58 58 58 58 59 60 59 60 57 59 60 59
67 66 67 67 67 68 67 66 65 65 65 64 62 61 61 60 61 62 62 62 63 63 64 65 65 66 66 65 65 64 64 63 63 63 63 62 61 61 61 61 60 60 60 60 60 59 58 59 58 55 57 57 56 57 58 57 58 60 59 58 58 61
66 66 66 67 67 68 68 65 63 61 60 60 61 61 62 62 62 62 61 62 62 63 63 63 64 64 65 65 64 64 63 63 62 62 63 61 60 60 59 59 59 59 58 58 58 58 58 57 58 57 57 56 57 57 57 56 56 58 57 58 57 55
66 66 67 67 66 66 65 63 61 61 59 58 61 62 63 62 62 62 61 60 61 62 63 63 63 64 64 65 64 64 63 62 61 62 62 60 60 59 59 58 58 58 57 56 57 57 56 56 57 56 57 57 57 57 57 56 55 56 56 56 54 55
66 67 67 67 67 66 65 63 61 60 60 60 60 61 62 61 62 62 60 60 61 62 63 62 63 62 63 63 63 63 62 62 62 61 61 60 60 60 59 58 58 57 57 56 56 56 56 56 56 56 56 56 55 55 54 53 53 54 54 53 56 55
66 67 68 67 66 66 65 64 61 62 61 62 63 63 62 61 62 62 61 61 62 62 61 62 62 62 61 62 62 61 61 61 61 60 60 60 60 60 60 60 59 58 57 56 57 56 56 55 55 56 55 56 55 55 55 54 54 54 54 53 54 54
66 67 67 67 66 66 65 63 63 62 61 62 63 64 63 62 63 62 62 61 61 61 61 61 61 60 60 61 61 60 60 60 60 60 60 60 60 60 59 59 58 57 57 56 56 56 55 54 55 55 55 55 56 55 54 55 55 55 54 55 54 53
66 65 66 66 65 64 63 63 63 63 62 63 62 63 62 62 62 62 62 61 62 61 61 60 60 60 61 61 62 61 60 60 60 60 60 60 59 60 59 59 58 57 56 56 56 55 55 55 55 55 56 55 55 55 54 55 55 55 54 54 52 51
67 66 65 65 65 63 62 63 63 62 62 63 61 60 60 61 60 60 61 61 61 61 61 61 60 60 61 61 60 60 60 60 60 60 60 59 59 58 58 59 58 56 57 57 56 56 55 55 54 54 54 55 55 55 54 55 55 54 55 53 52 52
66 66 65 65 65 64 63 63 62 62 63 62 61 60 59 59 59 60 61 61 60 60 60 60 60 60 60 61 60 60 60 60 60 60 59 59 59 59 58 57 57 56 55 57 56 55 55 55 54 54 54 55 55 54 54 55 55 55 55 55 54 54
64 65 64 64 63 63 62 62 62 62 62 61 60 60 59 58 58 60 61 61 60 60 60 60 60 60 60 60 60 60 60 59 59 59 59 59 58 58 58 57 57 56 56 57 56 55 55 55 54 55 54 54 54 54 54 55 55 55 55 55 55 55

ECMWFFLT2_sfc_temp_123.txt.gz
Temp
85 84 84 83 82 80 78 76 76 76 76 75 76 76 76 75 75 75 76 76 75 80 81 80 77 81 75 79 75 75 75 75 75 75 74 75 74 74 74 75 75 74 75 75 75 74 75 75 74 75 76 75 75 80 85 88 90 86 83 84 84 81
84 85 85 83 82 81 79 79 80 79 79 77 77 76 77 80 79 80 77 78 79 83 85 83 83 80 81 79 78 75 75 75 75 74 74 74 74 74 74 75 74 74 74 75 74 80 80 76 74 75 75 75 79 85 86 89 85 82 84 82 82 77
85 85 85 84 82 82 81 82 82 81 81 79 80 80 82 83 84 83 83 84 84 84 86 85 83 84 83 78 78 75 74 74 73 74 73 74 74 74 74 74 74 75 74 74 79 83 86 86 83 75 75 79 84 88 90 86 82 81 81 81 79 74
85 85 85 83 82 83 82 82 82 82 82 82 81 82 84 85 85 85 85 84 84 84 84 81 81 81 80 80 78 73 74 74 73 73 74 75 74 75 74 74 74 75 75 80 85 85 90 86 85 84 84 85 89 88 82 76 77 80 80 79 78 73
86 86 85 84 83 83 83 84 83 83 84 84 85 85 84 84 84 84 84 83 84 83 82 81 81 81 77 77 79 79 79 80 79 81 75 81 82 84 78 85 82 79 85 85 86 89 91 91 91 90 89 89 89 88 85 74 79 80 79 77 74 72
85 85 85 85 84 85 83 84 83 84 84 85 86 84 85 84 84 83 84 83 84 83 82 79 79 78 77 74 76 79 79 77 80 79 83 80 84 85 83 86 87 86 85 90 90 90 90 89 87 89 89 90 83 86 88 76 80 79 79 77 74 71
84 85 84 87 85 85 85 84 83 85 84 85 86 85 85 85 84 83 84 84 83 83 83 82 74 75 77 83 81 78 79 82 81 81 83 84 85 86 87 90 90 89 90 89 90 90 90 88 88 89 89 90 87 88 86 84 79 80 78 77 73 70
84 85 84 86 85 84 85 84 84 84 84 85 85 84 84 85 84 83 83 83 83 83 83 82 83 83 84 82 83 83 84 85 86 86 86 85 77 77 79 78 80 81 79 72 74 81 83 87 89 87 88 88 88 86 86 88 84 82 80 78 76 71
85 84 84 85 85 85 84 83 83 84 84 83 84 85 85 84 83 84 83 83 83 82 84 83 83 83 84 82 83 84 85 85 85 85 85 84 80 79 81 75 78 74 78 76 79 82 85 87 86 88 88 87 86 85 85 86 85 84 83 79 76 72
85 84 84 85 84 85 83 83 83 84 84 83 84 84 84 84 84 84 83 83 84 83 83 83 82 84 83 82 83 83 82 83 84 85 81 83 83 78 82 79 79 83 75 83 81 85 83 81 89 87 87 85 85 85 84 85 86 85 83 78 75 73
86 84 85 85 85 84 84 83 84 85 84 84 84 83 84 85 84 84 83 82 84 84 83 83 83 83 83 82 82 82 82 84 84 83 84 84 85 84 85 85 84 87 85 87 87 87 88 87 87 87 86 87 84 84 83 83 83 84 85 79 78 76
84 84 83 85 84 84 83 85 84 85 84 85 83 84 85 85 84 84 83 82 82 83 83 82 82 82 82 82 82 82 83 82 82 84 84 84 84 85 86 86 86 85 84 85 85 86 86 86 86 87 86 85 84 83 83 82 82 81 82 83 82 77
84 83 83 84 84 84 84 84 83 84 84 84 83 84 84 84 84 83 82 82 82 82 82 81 81 81 82 83 82 82 82 82 83 84 83 83 84 84 85 84 83 84 84 84 83 83 87 84 83 83 84 84 83 83 82 81 80 79 80 81 81 81
83 82 82 84 82 84 83 83 83 84 84 83 84 84 84 84 84 83 83 82 82 82 82 82 82 82 82 83 82 82 82 83 84 83 83 83 84 84 83 82 83 84 82 83 82 82 83 84 83 82 80 81 80 79 80 81 79 78 78 78 78 78
82 82 82 82 82 82 83 84 83 84 84 83 83 83 83 84 83 83 84 83 82 81 82 82 83 81 81 83 82 82 82 83 83 83 84 82 83 83 82 82 82 82 82 82 83 82 83 81 79 78 78 78 78 78 78 77 78 78 78 76 76 76
80 81 81 81 82 82 82 82 84 84 83 83 83 83 84 84 83 84 84 79 81 80 80 81 82 81 80 83 84 82 81 82 81 82 81 82 83 82 82 81 80 81 79 82 82 82 82 78 77 76 77 76 76 77 76 76 76 77 78 77 76 75
79 81 80 81 82 82 81 82 83 83 83 82 83 83 84 84 83 82 80 74 73 73 78 82 82 82 81 82 83 82 81 82 82 81 80 81 83 83 82 80 78 79 80 80 82 82 78 76 75 74 75 74 74 75 74 75 75 75 76 75 74 74
80 81 81 80 80 80 81 82 83 82 81 82 82 84 84 83 82 78 78 73 73 74 80 82 82 82 81 83 83 82 81 81 81 79 79 80 80 82 80 78 77 76 78 79 80 79 75 75 74 73 72 72 72 74 74 74 74 75 74 73 73 73
80 80 80 80 79 79 80 80 81 80 80 80 81 83 83 81 82 81 77 76 76 79 81 81 82 82 81 82 82 80 79 80 81 79 78 79 80 81 79 76 77 75 76 80 81 78 75 74 72 71 70 70 71 72 73 74 74 74 73 73 72 73
80 80 79 77 76 78 75 78 76 78 79 80 81 80 81 81 81 79 80 80 81 80 82 81 81 81 81 81 80 80 79 80 80 79 78 78 80 78 77 75 75 75 75 77 79 76 74 73 71 69 68 69 71 71 71 72 72 72 73 73 73 73
79 78 76 72 72 74 72 73 76 77 76 77 79 78 78 79 78 75 80 80 77 80 81 81 81 80 79 79 79 79 78 78 79 80 77 75 76 75 76 75 74 75 75 74 75 76 74 73 70 67 69 68 68 71 70 70 70 71 71 72 73 72
78 75 75 75 74 74 74 77 72 71 71 77 77 77 76 78 78 79 79 79 79 80 80 80 80 80 79 79 77 78 77 77 78 78 76 76 75 74 75 75 75 74 76 75 74 75 74 73 69 68 66 65 66 68 70 69 69 70 70 71 70 70
77 74 72 74 76 76 75 75 73 74 77 77 80 79 79 78 78 78 77 78 79 80 80 80 80 79 78 78 77 77 76 77 78 77 75 74 74 74 74 74 75 74 73 75 74 76 74 74 71 72 72 67 63 62 64 66 68 68 69 70 70 69
76 76 76 76 76 75 75 76 78 77 78 77 76 77 77 78 77 77 76 78 79 78 79 79 80 79 77 77 76 76 77 77 75 76 75 74 73 73 73 74 74 74 74 71 74 72 73 73 71 70 68 69 67 67 60 62 64 67 70 69 69 68
74 74 75 75 76 76 74 74 73 73 74 73 74 75 74 74 75 75 75 75 76 78 78 77 78 78 78 76 76 76 76 74 74 74 75 74 73 73 74 74 74 72 73 73 70 69 70 71 71 72 68 68 69 67 66 64 65 64 69 69 71 72
75 74 73 74 75 74 72 71 68 67 66 68 68 69 70 70 71 73 74 76 77 78 77 76 78 77 78 77 75 75 74 74 73 73 73 73 73 73 73 74 74 73 72 73 71 69 68 70 71 70 70 69 67 65 67 68 68 61 68 69 69 71
74 74 74 74 74 73 71 71 69 68 67 67 66 69 72 72 72 74 74 74 75 75 76 74 74 75 75 74 73 73 73 72 71 71 72 72 71 72 72 72 74 73 73 73 73 69 68 68 69 70 71 69 70 71 70 69 66 66 61 64 68 67
73 73 74 74 73 73 72 71 70 70 70 70 69 68 69 70 72 73 72 72 73 73 74 74 73 74 73 73 72 71 71 70 71 72 73 72 70 71 71 71 71 71 71 72 72 70 69 71 68 66 70 70 70 71 71 70 69 67 68 63 63 69
73 73 74 73 73 73 73 72 71 72 70 71 71 69 67 67 68 70 69 70 72 72 72 73 74 73 72 73 72 71 72 72 72 72 73 71 70 70 70 69 69 69 69 69 70 70 70 69 70 69 69 69 70 71 71 70 70 71 67 66 66 66
73 74 74 74 74 73 72 72 71 71 70 70 71 70 70 67 66 67 67 68 70 70 71 71 71 71 71 71 70 70 71 71 72 72 72 70 70 69 68 68 68 68 68 67 68 68 68 68 69 69 70 70 69 69 68 68 68 68 69 68 65 66
74 75 75 75 74 73 72 73 72 72 71 70 70 70 69 68 69 68 68 68 69 71 72 72 71 70 70 71 71 73 72 71 71 70 70 70 70 70 68 68 68 68 68 67 67 67 67 67 68 67 68 68 67 67 65 64 64 66 65 64 66 66
73 75 75 75 74 73 72 73 73 73 72 70 70 70 69 68 69 67 67 68 70 70 71 71 71 69 69 71 71 71 71 71 70 70 70 70 70 70 70 69 68 68 67 67 67 67 67 66 66 67 66 67 66 67 66 66 66 66 65 65 65 66
72 73 73 74 73 73 72 73 73 73 72 71 71 71 70 69 68 67 66 67 67 69 70 69 70 67 68 69 69 69 70 69 69 69 69 70 70 70 70 69 68 68 67 67 67 67 66 65 66 65 65 67 67 67 66 67 66 66 66 66 65 64
73 73 72 71 72 72 73 74 73 72 71 71 71 71 72 71 70 70 70 70 70 70 69 69 68 67 68 70 70 70 70 69 70 69 69 69 69 70 69 70 68 67 66 66 66 65 65 65 65 66 67 66 65 66 65 66 66 66 65 64 63 61
73 73 72 72 73 73 73 74 73 73 72 72 72 72 72 73 72 71 71 71 71 71 68 69 69 69 71 70 70 69 69 69 68 68 69 68 69 69 69 69 67 66 66 66 66 65 65 65 64 65 65 65 65 65 65 66 66 65 66 64 63 62
74 74 73 73 74 73 73 74 73 72 72 72 73 73 72 73 73 73 73 72 71 70 75 71 70 69 69 69 69 68 69 68 68 68 68 69 69 68 67 66 66 65 65 66 64 64 64 64 63 64 64 65 65 64 65 65 66 64 65 65 65 64
76 76 74 75 74 74 73 72 72 72 72 72 73 72 72 72 73 72 72 72 72 74 75 71 68 69 68 69 69 69 68 68 68 68 68 68 68 68 67 66 66 65 65 66 66 65 65 64 64 64 64 64 64 64 64 64 64 64 64 65 65 65